ECMWFFLT1_500_spd_000.txt.gz
Wind_Speed
25 25 25 25 25 25 25 25 25 24 23 23 23 22 22 22 23 23 23 23 23 24 24 25 25 25 26 26 26 26 26 27 28 29 29 31 32 33 34 34 32 33 34 34 39 45 45 45 47 47 45 44 43 41 40 40 40 40 40 40 41 41 41
24 25 25 25 25 25 26 26 26 26 25 24 23 22 22 22 22 23 23 23 23 23 24 24 25 25 25 25 25 26 26 27 27 27 28 29 30 31 33 35 34 34 35 34 36 41 44 46 48 49 50 48 46 43 42 42 42 41 41 41 41 41 41
24 25 26 26 26 25 26 26 26 26 26 26 25 23 23 22 22 23 23 23 24 24 24 24 25 25 25 25 26 26 26 27 27 27 27 28 29 30 31 33 34 35 36 36 36 37 41 44 46 50 52 52 50 48 46 45 45 45 44 43 42 42 41
24 25 26 26 26 25 25 26 26 26 26 27 26 26 25 24 23 23 23 24 24 25 25 25 25 26 26 27 27 27 27 28 28 28 28 28 29 29 30 31 33 34 35 36 37 38 40 41 41 45 51 53 52 51 50 48 48 48 47 46 45 44 44
23 24 25 26 26 26 26 26 26 26 26 26 27 27 27 26 25 25 24 24 24 25 26 27 27 27 27 28 28 28 28 29 29 29 29 29 30 30 30 31 31 33 34 35 36 38 40 40 39 41 46 52 53 52 51 50 49 48 48 47 47 47 48
23 23 24 25 26 27 27 26 26 26 27 27 27 27 27 27 27 27 26 26 25 26 26 27 28 29 29 29 29 29 30 30 30 30 30 30 31 32 32 32 32 32 34 34 35 37 39 40 40 39 41 47 52 53 53 53 52 51 50 47 46 46 47
23 22 23 24 25 26 26 27 27 26 27 27 28 28 28 28 27 27 27 27 27 27 27 27 28 29 30 30 30 30 30 31 31 31 31 31 32 33 33 34 34 34 34 35 36 37 38 39 40 40 40 44 49 51 53 54 53 53 52 50 49 48 46
22 22 22 23 24 25 26 26 27 27 27 27 28 28 29 29 29 28 28 28 28 28 28 28 29 29 30 31 31 32 31 31 32 32 32 32 33 34 35 36 36 36 37 37 38 39 39 40 40 41 41 43 46 49 51 52 52 52 50 50 52 52 50
22 22 22 23 24 25 26 26 26 27 27 27 27 28 29 29 30 30 30 31 30 30 30 30 30 30 31 31 32 33 33 33 33 33 33 34 34 35 36 37 38 38 39 40 41 41 41 41 41 41 42 44 46 47 49 50 52 50 48 48 50 51 52
24 24 23 24 25 26 27 27 27 27 28 28 29 29 30 30 31 32 33 34 34 34 34 33 33 33 33 33 33 34 34 35 36 36 36 36 37 37 37 38 39 40 41 41 42 43 43 43 43 43 43 45 47 48 49 50 51 50 50 50 50 49 50
27 27 26 26 27 28 28 28 28 29 29 29 30 30 31 31 32 33 33 34 35 36 36 36 36 36 36 36 36 36 36 36 37 38 39 40 40 40 41 41 41 41 42 43 43 44 45 45 46 46 45 46 47 49 50 51 51 51 51 52 52 52 52
30 29 29 29 29 30 30 30 30 30 30 30 31 31 32 33 33 34 34 35 36 36 37 38 38 38 39 39 39 39 39 39 39 39 40 41 42 43 44 44 44 44 44 44 45 46 46 47 48 48 49 48 49 50 51 53 53 51 50 52 52 53 54
31 31 31 31 31 31 32 32 31 31 31 32 32 33 34 35 36 36 37 37 37 38 38 39 40 40 41 41 41 41 42 42 41 41 41 42 43 44 45 46 46 46 46 46 46 47 48 49 50 50 51 51 51 51 52 54 54 52 51 53 53 52 54
29 30 31 32 33 33 33 32 32 32 32 32 32 33 34 35 36 37 38 38 39 39 40 41 41 42 43 43 44 44 44 43 44 44 43 43 43 44 45 46 48 48 48 48 48 49 49 50 51 52 53 54 53 53 54 55 56 54 52 53 54 52 53
28 29 30 31 31 31 31 31 31 31 31 31 31 32 33 34 35 36 37 38 39 40 41 42 43 44 45 46 46 47 47 46 46 46 46 46 46 46 45 46 48 49 50 50 50 50 51 52 53 53 54 55 55 56 56 57 58 57 53 52 54 54 54
29 30 30 30 30 29 29 29 29 29 29 30 31 32 33 34 35 36 37 39 40 41 42 43 45 46 47 48 48 49 49 50 49 49 48 48 48 49 48 48 48 49 50 52 53 53 53 53 54 54 55 56 57 57 58 58 59 59 55 52 54 56 55
32 32 32 32 31 30 29 29 29 30 30 31 32 33 34 35 36 37 38 39 40 42 43 44 45 47 48 49 50 51 51 52 52 52 51 51 51 51 51 51 51 51 51 52 53 55 56 56 56 56 56 57 58 58 59 60 59 59 58 55 55 56 56
36 35 35 35 33 31 30 30 31 32 33 33 34 34 35 36 36 37 37 39 40 41 42 44 45 46 48 49 50 51 52 53 53 54 54 54 53 53 53 53 53 53 54 53 54 55 57 58 58 58 58 58 59 59 60 60 60 60 60 58 56 56 57
38 38 37 37 35 33 32 33 34 34 34 34 35 35 35 35 36 37 37 38 39 40 41 42 43 44 45 47 49 50 51 53 53 54 54 55 55 55 55 55 54 54 55 55 55 55 56 58 59 60 60 59 59 60 60 60 60 61 61 59 57 57 58
40 40 39 38 37 35 34 35 35 35 35 35 35 35 35 36 36 37 37 37 38 38 39 40 41 42 43 45 46 48 49 51 52 53 54 54 55 56 56 56 56 55 55 56 56 56 57 58 59 61 62 61 60 60 61 60 60 60 61 61 59 57 58
42 42 40 40 39 37 37 37 36 36 35 35 35 35 35 36 36 37 37 37 38 38 39 40 41 42 43 44 46 47 48 49 51 52 53 54 55 55 56 56 56 56 56 57 57 57 58 58 59 60 61 62 62 61 61 61 61 61 61 61 61 59 58
41 42 42 42 42 40 39 38 37 37 36 35 35 35 35 36 36 37 37 38 38 38 38 38 39 41 42 44 46 47 48 50 50 51 52 53 54 55 56 56 57 57 57 57 58 58 58 58 59 59 61 62 63 62 61 61 62 62 62 61 60 60 59
40 40 42 44 44 43 41 40 38 37 36 36 36 35 35 36 37 37 38 38 38 37 37 38 39 41 43 44 46 47 49 50 52 52 53 53 54 55 56 57 57 57 57 58 58 59 59 59 60 60 60 61 63 63 62 62 61 62 63 62 60 59 60
41 43 45 45 44 44 43 41 40 39 38 37 37 37 36 36 37 38 38 39 39 38 39 40 42 43 45 46 47 48 50 51 53 54 54 54 55 55 56 57 57 58 58 58 59 59 60 60 60 61 61 61 62 64 64 63 62 62 63 63 62 60 60
44 48 50 50 47 45 43 42 41 41 40 39 39 38 38 37 38 39 40 41 41 41 42 44 46 48 49 50 51 52 53 53 54 55 56 57 57 57 57 58 58 59 59 59 59 60 60 61 61 61 62 61 62 63 64 64 63 62 63 64 63 62 61
47 48 53 55 53 47 44 44 44 43 42 41 41 40 39 38 39 40 42 42 42 43 45 47 50 51 52 53 54 56 57 57 56 56 57 57 58 59 59 59 59 60 60 60 61 61 61 62 62 62 63 63 62 63 64 65 65 64 63 64 64 62 61
51 49 51 52 52 50 46 46 45 44 43 43 42 41 40 40 41 42 43 42 43 45 48 50 52 53 54 55 56 59 61 61 59 57 57 58 59 59 60 61 60 60 61 61 62 63 63 63 63 63 64 64 63 63 64 64 65 65 65 64 64 63 61
54 52 50 48 47 45 45 45 45 45 44 43 42 42 41 41 42 43 43 44 45 47 49 52 54 55 56 57 59 61 63 63 61 59 59 59 59 60 60 61 61 61 61 61 62 63 64 65 65 65 65 64 64 64 64 64 65 66 66 65 65 64 61
53 52 52 51 47 44 43 44 45 44 44 43 43 42 42 42 43 44 45 46 47 48 51 53 55 57 58 60 62 63 63 62 60 59 59 60 61 61 61 62 62 62 61 61 61 62 63 65 66 66 66 65 65 65 65 65 66 67 67 67 66 64 62
50 52 53 53 53 51 47 44 44 44 44 43 43 43 43 43 44 45 46 47 48 49 52 54 57 58 60 62 63 63 62 60 59 59 59 60 60 60 61 61 61 62 62 62 62 62 63 64 65 66 66 66 66 66 65 65 66 67 67 67 66 64 63
51 52 52 51 51 51 48 44 43 43 43 43 43 43 43 43 44 46 47 47 49 50 53 55 58 60 62 63 63 62 60 59 59 58 57 56 56 56 56 57 58 59 60 61 62 62 63 64 65 65 65 66 66 66 65 66 66 66 67 68 67 65 64
53 54 52 50 49 47 44 42 42 43 43 43 43 43 43 44 45 45 46 48 50 52 54 57 60 62 62 62 61 60 59 58 56 54 53 52 52 53 53 54 55 57 58 59 60 61 62 64 64 64 65 65 65 65 65 66 66 66 67 67 67 67 65
52 55 55 53 49 43 40 40 42 43 44 44 44 44 44 44 44 45 47 50 52 54 57 59 61 62 61 60 60 58 57 55 53 52 52 53 53 53 54 55 56 57 59 60 61 62 62 63 63 63 63 64 64 64 65 66 66 67 67 67 67 67 66
41 46 49 49 48 45 44 45 45 45 46 45 45 45 43 43 44 46 49 51 54 57 59 61 61 61 60 59 57 56 54 54 54 55 54 54 54 53 52 53 53 54 57 58 60 62 62 62 62 61 61 61 61 62 64 65 66 67 68 67 67 67 65
39 38 39 41 44 47 50 50 48 47 47 46 45 44 42 43 44 47 50 53 56 58 59 60 60 59 58 57 55 54 54 56 58 58 56 53 50 49 48 49 51 53 56 57 58 59 59 60 60 59 58 58 59 60 62 64 65 67 68 67 68 67 65
44 40 39 40 42 46 48 48 48 48 47 46 44 43 42 44 46 48 51 54 56 57 57 58 58 57 56 54 54 55 57 58 59 58 54 49 48 48 49 51 53 55 57 58 58 58 57 57 57 56 56 56 56 57 59 61 63 65 67 67 68 67 64
45 43 44 43 42 43 45 46 46 47 46 44 43 42 43 45 47 50 52 54 54 55 55 56 55 54 54 54 56 57 59 58 57 55 52 50 50 49 49 49 50 51 51 51 52 53 54 54 54 54 54 54 55 56 57 58 60 63 65 66 67 66 64

ECMWFFLT1_500_spd_003.txt.gz
Wind_Speed
23 24 25 26 26 26 25 24 23 21 21 21 21 22 22 23 23 23 23 23 23 24 25 26 27 27 27 27 27 27 27 27 27 27 27 27 29 29 30 30 30 30 31 32 31 33 35 38 40 42 43 45 46 45 43 42 41 41 42 43 44 44 44
22 23 24 26 26 26 25 25 24 22 21 20 20 21 21 22 23 23 23 23 23 23 24 25 26 26 26 26 26 26 27 27 27 27 28 28 30 31 31 32 33 32 32 33 33 33 34 35 37 39 41 44 46 47 46 44 42 41 42 43 44 44 44
21 23 24 25 26 26 25 25 24 23 22 21 20 20 20 21 22 22 22 22 22 23 23 24 25 25 25 25 25 26 26 26 27 27 27 28 29 30 31 32 34 34 35 35 35 35 35 35 35 36 37 39 43 46 47 46 45 44 44 44 44 44 44
21 22 23 24 25 25 25 24 24 24 23 22 21 20 20 20 20 21 21 22 22 22 22 23 24 25 25 25 25 25 26 26 27 27 27 27 28 29 30 31 32 32 34 35 36 36 36 36 35 35 36 37 39 42 46 47 47 46 46 46 46 45 45
21 22 23 24 24 25 25 24 24 24 24 23 22 21 20 19 19 20 21 21 22 22 23 23 23 24 25 25 25 26 26 27 27 27 27 27 28 29 29 30 30 31 31 32 34 34 35 35 35 35 36 38 38 39 42 46 47 47 47 48 49 48 47
21 22 22 23 25 25 25 24 23 23 23 23 23 22 21 21 20 20 20 21 22 22 23 23 24 24 25 26 26 26 26 27 27 28 28 27 28 28 29 29 29 30 30 31 32 33 33 34 34 34 35 37 39 38 40 44 45 46 48 49 51 51 51
21 21 22 23 24 25 25 25 24 23 24 23 23 22 22 22 22 21 21 21 21 22 22 23 24 25 26 27 27 28 27 27 28 28 28 28 28 29 29 30 30 30 31 31 31 32 33 33 33 33 33 35 37 38 39 42 43 44 44 46 50 53 53
22 22 22 23 24 25 25 24 24 23 24 23 23 22 22 22 22 22 22 21 21 21 21 22 23 24 25 27 28 29 29 29 29 28 28 29 29 30 30 30 31 31 31 32 32 32 33 34 34 34 34 34 36 36 38 39 40 41 41 42 47 52 53
23 23 23 23 24 24 24 24 23 23 23 23 23 23 22 22 22 22 21 21 21 21 22 22 23 24 25 26 27 29 30 31 31 31 30 29 30 30 31 31 31 32 32 33 33 34 34 35 35 36 36 36 36 37 37 37 38 39 40 41 44 49 52
25 25 25 24 24 24 24 24 23 23 23 23 23 23 23 23 23 23 23 23 23 23 23 24 25 25 26 27 28 29 30 31 32 33 33 33 32 32 32 32 33 33 33 34 34 35 36 36 37 37 38 38 37 37 38 37 37 37 39 41 43 46 50
28 27 27 26 25 25 25 25 24 24 24 25 25 25 25 25 25 25 25 25 25 25 25 26 26 27 27 28 29 30 31 32 33 34 35 36 36 36 36 36 36 36 36 36 37 37 38 38 39 39 40 40 40 40 39 39 37 37 38 40 42 44 47
30 30 30 28 28 27 27 27 26 27 27 27 28 28 28 28 27 27 27 27 27 27 27 28 28 28 29 29 30 31 32 33 34 35 36 37 38 39 40 41 41 40 40 40 40 40 41 41 41 42 42 42 42 42 42 42 40 38 38 40 41 43 46
28 29 30 31 31 31 30 29 29 29 29 30 30 31 31 31 30 30 29 29 29 29 30 30 30 31 31 32 32 32 33 34 35 36 36 37 38 40 41 43 43 44 44 44 44 44 44 44 44 44 45 45 45 45 45 45 43 40 39 41 42 43 45
25 27 28 29 30 31 32 32 32 32 32 32 33 33 33 33 33 33 32 32 31 31 31 31 32 32 33 33 34 34 35 36 37 37 38 38 39 40 41 42 44 45 46 46 46 46 46 47 47 46 47 47 47 48 48 48 47 44 42 43 44 44 45
26 27 28 29 30 30 31 31 32 33 33 34 34 34 34 34 35 35 35 34 33 32 32 32 33 33 34 34 35 36 36 37 38 39 40 41 41 42 42 43 44 45 46 47 47 48 48 49 49 49 49 49 49 50 50 50 50 48 45 44 46 46 46
29 29 30 31 32 32 31 30 30 31 33 34 34 35 35 35 35 35 35 35 34 34 33 33 34 35 35 36 37 37 38 39 40 40 41 42 43 44 45 45 46 47 47 48 49 49 50 50 50 51 51 51 51 51 52 52 52 51 49 47 47 48 48
32 31 31 33 35 35 34 33 32 32 32 32 33 33 33 33 34 34 34 34 34 34 35 35 35 36 36 37 37 38 39 39 40 41 42 43 44 45 46 47 48 49 50 50 50 51 52 52 52 52 52 53 54 53 53 54 54 54 52 50 49 50 50
36 35 34 35 36 37 37 36 35 34 33 33 34 34 33 32 32 32 33 34 34 34 35 35 36 36 36 36 36 37 37 38 39 39 40 41 42 43 44 45 47 49 51 52 52 53 53 54 54 54 54 54 55 56 56 56 56 56 55 53 52 52 52
40 41 40 38 37 39 39 38 36 35 35 36 36 36 35 33 32 33 33 34 34 34 34 34 35 35 35 34 34 35 35 36 36 37 38 39 40 41 42 43 44 46 48 50 52 53 54 55 55 56 56 56 56 57 58 58 59 59 58 57 55 54 54
43 45 45 42 40 41 41 41 40 38 37 38 39 38 37 35 34 34 34 34 33 33 33 33 33 33 32 32 32 32 33 34 35 36 37 38 39 40 41 42 43 44 46 47 49 51 53 55 56 56 57 57 58 58 59 60 61 61 61 61 59 57 56
47 47 48 46 43 42 42 43 44 43 41 40 41 40 40 39 37 37 36 35 34 33 33 32 32 32 31 31 31 32 33 34 35 36 37 38 39 40 41 42 42 43 45 46 48 49 50 52 54 55 57 58 58 59 59 60 61 62 63 63 62 61 59
47 49 49 49 48 46 46 46 46 44 42 41 41 41 42 42 42 40 39 37 36 35 34 33 32 32 32 31 32 33 34 36 37 38 39 39 40 41 42 43 43 44 45 47 48 49 51 52 53 54 55 57 58 59 59 60 61 62 63 64 64 63 62
48 50 51 51 51 50 48 47 45 43 41 40 40 42 43 44 45 44 42 40 39 38 36 35 35 35 34 33 33 34 36 38 40 40 41 42 43 44 45 46 47 48 49 49 50 51 52 53 54 55 55 55 57 58 59 60 60 61 63 64 64 64 64
49 52 54 52 51 49 47 46 44 44 44 43 42 42 43 44 46 47 46 44 42 40 39 38 38 38 37 36 36 37 38 40 41 42 43 44 45 46 47 49 50 51 51 53 54 54 54 54 55 56 57 57 57 58 59 59 60 60 62 63 64 65 65
49 50 52 52 51 49 46 46 45 47 49 48 45 44 43 45 47 48 48 47 45 43 42 41 41 40 40 40 39 39 40 41 42 43 45 46 47 47 49 50 51 52 52 54 55 57 58 58 57 57 58 58 59 59 60 60 60 60 61 63 64 64 65
51 49 47 46 46 45 44 45 45 46 48 47 45 44 44 46 48 49 49 49 47 45 44 44 44 44 44 43 42 42 42 42 43 45 46 47 48 49 50 52 53 54 55 56 57 59 60 61 60 59 59 59 60 61 61 62 61 61 62 62 63 63 64
55 53 51 50 51 50 49 49 49 49 50 50 48 47 45 46 47 48 49 50 49 47 46 46 46 47 46 45 45 44 44 45 45 46 47 49 50 52 53 55 56 57 58 60 62 64 64 63 62 61 60 60 60 61 62 63 64 63 63 63 63 63 62
57 56 55 57 60 62 60 57 55 54 54 54 53 52 50 47 44 44 48 50 50 49 48 48 48 49 48 48 47 47 47 48 47 48 49 51 52 54 56 57 59 61 63 65 68 69 68 66 64 63 62 62 61 62 63 64 65 65 65 64 64 63 62
59 58 55 55 56 57 57 57 56 55 56 57 54 53 52 48 43 42 45 50 50 50 50 49 49 50 50 49 49 50 50 50 49 50 51 53 55 56 58 60 62 64 67 70 72 71 69 67 65 64 63 63 63 63 63 64 65 66 66 66 65 64 63
61 59 56 54 55 55 54 54 52 50 52 53 50 49 49 48 46 46 48 50 50 50 50 49 50 50 51 51 52 52 52 51 51 52 53 55 57 59 60 62 64 67 71 72 72 70 68 67 66 65 64 64 64 64 63 64 65 66 67 67 66 65 65
61 58 53 53 57 58 58 54 46 40 40 42 41 42 44 45 46 47 47 48 49 49 49 49 50 51 52 53 54 54 53 53 53 54 55 58 60 61 62 65 68 71 72 71 68 66 65 65 64 63 63 64 64 63 63 64 65 66 67 68 67 66 66
58 55 51 53 55 55 54 50 43 39 41 43 43 42 41 41 43 43 44 46 47 47 48 49 50 52 53 55 55 54 54 54 54 56 58 59 61 63 65 68 70 71 69 66 65 63 62 62 62 62 63 64 64 63 63 64 65 66 67 67 67 67 66
53 49 48 51 53 52 51 48 45 46 47 47 47 47 44 43 43 42 41 42 43 45 48 49 51 53 54 54 54 54 55 56 57 59 60 61 63 65 68 69 68 66 64 62 61 61 61 62 63 64 65 65 64 64 64 65 64 65 66 66 66 67 66
52 48 47 50 54 54 53 49 45 44 44 43 45 47 48 46 44 41 40 41 43 46 49 51 52 53 52 52 53 55 57 59 61 62 62 63 65 67 68 67 63 61 61 61 62 62 62 63 63 64 65 65 65 65 66 65 65 65 64 64 64 64 64
49 47 46 48 53 55 54 50 40 34 35 37 39 42 45 46 45 44 45 47 49 49 50 51 51 51 50 52 54 58 59 61 63 64 64 66 68 69 66 62 59 60 62 62 62 61 60 59 59 59 60 61 62 63 64 63 63 63 62 62 62 63 62
48 47 45 46 50 52 54 54 46 37 34 34 35 39 42 44 45 48 51 53 53 51 50 49 49 50 51 53 57 59 61 63 65 66 66 68 69 66 62 60 61 62 61 59 57 57 57 57 57 57 58 59 61 62 63 62 61 60 60 59 60 60 61
45 45 44 45 46 46 46 49 49 48 44 40 39 39 39 39 42 45 48 50 49 48 47 48 49 50 52 55 58 60 63 64 65 66 67 68 66 62 60 61 62 60 56 55 54 55 55 56 56 56 56 57 57 58 59 59 59 59 58 57 57 57 58

ECMWFFLT1_500_spd_006.txt.gz
Wind_Speed
26 26 26 27 27 27 25 24 23 23 24 23 22 21 21 22 22 22 23 23 23 24 24 25 25 25 27 29 31 32 31 31 31 31 30 28 26 26 25 24 24 23 22 23 25 29 32 33 34 36 37 39 41 43 43 42 42 43 43 43 44 44 44
26 26 26 26 26 26 24 23 22 22 22 22 22 21 21 21 22 22 23 23 23 24 24 24 24 24 25 26 28 29 30 30 31 32 31 30 28 27 25 25 25 26 26 26 27 29 31 31 32 33 33 34 37 41 43 43 43 43 43 43 44 44 44
26 26 26 25 25 24 23 22 22 21 21 21 21 20 20 20 21 22 22 23 23 23 24 24 24 24 24 24 25 26 27 28 29 30 30 30 30 29 27 27 28 28 28 29 30 31 31 31 32 33 33 32 32 35 39 42 43 43 44 44 45 46 46
25 25 25 24 23 22 22 22 22 22 21 20 19 19 19 19 20 21 22 22 23 23 23 23 24 24 23 23 24 24 25 26 26 27 28 28 29 30 29 29 29 29 29 30 32 33 33 33 33 33 34 34 32 33 36 38 40 42 42 43 44 46 47
24 24 24 23 22 22 21 22 22 22 22 21 20 19 19 19 19 20 21 22 22 22 23 23 23 23 23 23 23 23 24 25 25 26 26 27 27 28 29 29 29 29 28 28 30 32 34 34 34 34 35 35 34 34 36 38 39 39 40 39 39 42 45
24 24 24 24 23 22 22 22 22 22 22 22 21 20 19 19 19 20 20 21 21 22 22 22 22 23 23 23 23 23 23 23 24 25 25 25 26 27 27 28 28 28 28 27 28 29 31 32 33 34 35 37 37 37 39 40 39 39 39 38 37 38 41
24 24 24 24 24 23 23 23 23 23 23 22 21 21 20 20 19 19 20 20 21 21 21 22 22 22 23 23 23 23 23 23 23 24 24 25 25 26 27 27 27 28 28 27 28 28 29 30 31 31 32 35 36 37 39 41 41 40 40 39 39 38 38
25 25 25 25 25 24 24 24 24 24 23 23 22 21 21 21 20 19 19 20 20 21 22 22 22 23 23 23 23 23 23 23 23 24 24 25 25 26 27 27 27 28 28 28 28 29 29 30 31 31 31 32 33 34 35 37 39 39 40 40 40 40 40
27 26 26 26 26 25 25 25 26 26 25 24 22 21 20 20 20 20 20 20 20 21 22 22 23 23 23 23 23 24 24 23 24 24 24 25 26 26 27 27 28 28 28 29 29 29 30 30 31 31 31 31 32 32 32 33 35 36 38 38 39 40 40
27 28 28 28 27 27 26 26 27 27 27 26 24 23 21 21 20 20 20 21 21 21 21 22 22 23 23 24 24 24 25 25 25 25 25 26 26 27 27 28 28 29 29 29 30 30 30 31 32 32 32 32 32 32 32 31 32 34 35 36 37 38 39
25 27 29 29 29 29 27 27 28 28 29 29 27 25 24 23 22 21 21 21 22 22 22 22 23 23 24 24 24 25 25 26 27 27 27 27 28 28 29 29 30 30 31 31 31 32 32 32 33 33 33 34 34 34 33 32 31 32 34 35 35 36 37
23 24 25 27 29 30 30 29 29 29 30 30 30 29 27 26 25 24 24 24 24 24 24 24 25 25 25 26 26 26 27 28 28 29 29 30 30 31 31 32 33 33 33 34 34 35 35 35 36 36 36 36 37 37 36 35 33 32 33 35 35 36 37
26 25 24 24 25 27 28 29 30 31 32 32 32 31 30 29 28 27 27 27 27 27 27 27 27 28 28 28 28 28 29 30 30 31 31 32 32 33 34 35 35 36 37 37 38 38 39 39 39 40 40 40 40 40 40 40 38 35 34 36 37 37 38
27 27 26 25 24 24 25 26 27 29 31 32 33 33 33 32 31 30 30 30 30 29 29 29 30 30 30 30 30 31 31 32 32 33 33 34 34 35 36 37 38 38 39 40 40 41 41 42 42 43 43 44 44 44 44 43 43 40 38 38 39 39 40
29 28 28 27 26 26 26 26 26 26 28 29 31 32 33 34 34 33 33 33 32 32 32 32 32 32 32 33 33 33 34 34 34 35 36 36 37 37 38 38 39 40 41 41 42 43 43 44 44 45 45 46 46 47 47 47 47 45 42 41 42 42 42
31 30 29 30 30 31 30 30 29 28 28 28 29 29 30 32 33 34 34 34 34 34 34 34 34 34 34 34 35 35 35 36 36 37 37 38 39 39 40 40 41 41 42 43 43 44 45 45 46 46 47 48 48 49 50 50 50 49 47 45 45 45 45
33 32 31 30 32 34 34 34 33 31 29 28 29 30 30 30 31 32 32 32 33 34 35 35 35 35 35 34 35 35 35 36 36 37 38 38 39 40 40 41 42 43 43 44 45 46 46 47 48 48 49 50 51 51 52 52 52 52 51 49 48 48 47
35 35 34 33 32 34 35 35 35 33 31 29 29 30 31 31 31 31 31 31 32 33 34 35 35 35 35 34 33 33 34 35 36 37 37 37 37 37 37 38 38 40 41 41 42 44 46 47 48 49 50 51 53 54 55 56 56 55 55 53 51 50 50
36 37 37 36 36 37 37 37 37 37 36 35 34 32 32 33 32 32 32 33 33 34 34 35 36 35 35 35 33 33 33 34 35 36 36 35 35 33 32 32 32 33 34 35 36 38 41 43 45 47 49 51 52 54 55 57 59 59 59 58 56 54 53
38 38 38 38 39 40 43 44 42 41 41 41 40 38 36 36 35 34 34 35 36 35 35 36 37 37 36 35 34 34 34 34 34 33 33 32 31 29 28 27 28 29 30 31 32 34 36 39 41 43 45 47 49 52 53 55 58 60 61 62 61 59 57
40 40 40 40 40 41 45 47 47 46 44 43 43 42 41 38 37 37 37 38 39 38 37 36 37 37 37 37 36 36 35 35 34 33 32 31 30 29 28 28 29 30 31 32 33 34 36 38 40 41 43 46 47 49 51 53 55 57 60 62 62 62 61
44 43 42 43 42 42 45 49 49 47 44 43 44 46 44 42 42 42 42 41 42 41 39 38 38 38 38 38 38 38 38 37 36 34 33 33 32 31 31 31 31 32 32 33 34 35 36 38 39 40 42 45 47 48 50 51 53 55 57 59 61 62 62
49 47 45 44 45 46 48 50 51 51 50 48 48 49 48 47 47 47 44 43 42 41 39 39 40 40 41 40 40 40 40 39 39 37 36 35 35 34 34 34 34 34 34 35 35 36 36 38 39 40 41 43 46 47 49 51 52 54 56 57 59 60 61
53 51 49 48 49 50 51 52 52 53 52 50 49 50 49 50 50 47 45 43 41 40 39 39 40 42 43 43 43 42 42 42 42 41 40 39 38 38 37 37 37 37 37 37 37 37 38 39 41 42 43 44 46 48 49 50 52 54 56 57 58 59 59
56 55 54 54 53 53 53 53 54 54 51 49 49 50 50 51 52 49 46 44 42 42 42 42 43 43 43 44 45 44 43 43 44 44 44 43 42 41 40 39 39 40 40 40 40 40 41 42 43 43 45 46 47 49 51 52 53 54 56 57 58 59 60
60 59 58 58 57 56 55 55 56 57 56 54 53 52 50 49 49 48 46 44 43 44 45 44 44 44 43 43 45 47 46 45 45 47 47 47 46 44 42 41 42 42 43 43 44 44 44 45 45 46 47 48 50 51 53 55 56 57 58 59 59 59 60
61 60 59 58 58 57 56 56 55 54 54 55 55 55 54 50 45 43 43 45 47 48 47 46 45 45 45 45 46 48 48 46 46 48 49 49 49 47 45 44 44 45 46 47 48 48 48 48 48 49 50 51 53 55 57 59 60 62 63 63 62 61 61
61 59 58 58 59 59 58 58 56 52 49 49 48 49 53 53 50 49 50 52 51 51 50 50 50 50 50 49 46 45 46 45 46 48 49 51 51 49 47 46 46 46 47 49 51 52 52 51 51 52 52 54 56 58 60 63 65 67 68 68 67 64 63
61 60 60 59 60 60 60 60 59 57 54 52 50 48 49 50 51 52 54 52 50 51 53 53 54 54 54 52 48 44 43 44 45 47 49 51 51 50 49 48 48 49 50 52 54 54 54 54 54 54 55 56 59 61 63 66 69 71 72 72 70 67 65
62 62 62 61 61 61 62 61 60 59 59 58 57 54 53 53 53 53 53 50 48 51 53 55 55 54 54 53 51 49 47 46 47 47 48 49 50 50 50 49 50 53 54 55 56 55 55 56 57 57 58 59 62 64 67 70 72 72 72 72 70 68 66
60 61 62 63 62 62 62 62 61 60 59 57 56 55 55 57 58 58 57 52 46 45 46 47 49 50 51 52 52 52 52 50 49 47 48 49 50 50 50 51 54 57 57 57 57 56 58 59 60 60 62 63 65 68 70 71 71 69 69 68 68 67 65
58 59 60 61 62 62 61 61 61 58 56 55 54 53 53 54 55 57 57 51 43 41 41 42 42 44 47 49 50 51 52 51 48 47 47 49 50 50 51 54 58 60 59 58 58 59 61 62 63 64 65 67 69 72 72 69 66 65 64 64 65 65 65
56 57 58 58 59 60 60 61 60 56 51 49 48 48 49 49 49 50 48 43 40 42 44 45 45 44 44 45 47 48 49 48 46 45 46 47 49 51 54 58 60 61 61 61 61 62 63 65 66 67 69 72 73 72 68 65 63 63 64 64 65 66 66
57 57 57 58 58 58 58 57 55 50 45 41 40 42 42 39 39 39 37 36 39 42 44 46 47 48 47 47 47 47 47 47 46 45 45 48 51 54 57 60 61 61 62 63 63 64 66 67 69 71 73 74 72 67 64 62 63 64 65 65 65 66 66
59 58 59 59 57 56 55 53 49 47 45 41 38 39 40 40 41 41 38 35 36 38 40 42 45 47 49 50 49 49 49 49 49 49 51 54 58 59 61 62 63 63 63 64 65 66 67 68 71 74 73 70 66 63 63 62 62 62 62 61 61 61 62
60 59 58 54 50 48 47 46 45 46 47 47 47 47 47 47 48 47 44 39 36 35 36 39 42 45 48 50 51 51 51 52 54 56 58 60 61 62 62 62 63 63 63 65 66 67 68 72 74 72 68 64 63 63 62 60 60 60 60 60 60 59 59
56 54 49 43 39 40 41 39 40 42 42 44 47 50 50 50 49 47 46 45 44 42 41 42 42 41 43 46 49 51 52 54 56 57 57 57 57 58 59 60 61 63 64 66 67 69 72 73 71 66 63 62 62 60 58 58 59 59 59 59 58 57 56

ECMWFFLT1_500_spd_009.txt.gz
Wind_Speed
23 24 24 24 24 24 24 25 25 26 26 27 27 27 26 24 23 23 24 26 26 25 25 24 24 24 25 26 28 30 31 31 30 30 29 28 28 28 26 24 23 22 22 22 23 24 24 26 32 39 46 50 50 49 47 45 44 44 43 43 43 43 43
22 23 23 23 23 23 24 24 25 25 25 26 26 25 24 23 23 23 24 25 26 25 25 25 24 24 24 25 26 28 29 30 30 31 32 32 31 31 30 29 27 25 24 24 23 23 23 22 24 27 33 41 45 46 46 45 45 44 44 43 43 43 43
22 22 22 22 22 23 23 24 24 24 24 24 24 23 22 21 21 22 23 24 25 25 25 24 24 24 24 25 25 27 28 28 28 29 31 32 32 32 32 31 30 28 25 24 24 24 23 22 22 23 25 29 35 39 41 42 43 43 44 45 45 44 43
21 21 21 21 21 22 23 23 24 24 24 23 22 21 21 20 20 21 22 23 24 24 24 24 24 24 24 24 25 26 27 27 27 27 28 30 30 31 32 32 31 30 28 26 25 25 25 24 23 24 25 27 30 33 36 38 39 39 40 41 43 45 45
20 20 20 20 21 21 22 23 23 24 23 22 21 21 20 20 19 20 21 22 23 24 24 23 23 24 24 24 24 25 25 26 26 26 26 27 28 28 29 30 30 30 29 28 26 26 27 27 26 26 28 29 30 32 34 35 35 35 35 35 36 39 42
19 19 19 20 20 21 21 22 22 23 23 22 22 21 20 20 20 20 20 21 22 23 23 23 22 22 23 23 23 24 24 25 25 25 25 25 26 27 27 27 28 29 29 28 28 28 28 28 29 29 30 32 33 34 34 34 34 34 34 34 33 34 36
19 18 18 19 19 20 20 21 21 22 22 22 22 21 21 21 20 20 20 21 22 22 22 22 22 21 21 22 22 22 23 23 23 24 24 24 24 25 26 26 26 27 28 28 28 27 28 28 29 29 30 32 33 35 36 37 36 36 35 35 34 34 35
20 20 19 19 19 19 20 20 21 21 22 22 22 21 21 21 21 21 21 21 22 22 22 22 21 21 21 21 21 21 21 21 22 22 23 23 23 24 24 25 25 26 26 27 27 26 26 27 27 28 29 30 31 32 34 36 37 38 39 38 38 37 37
22 22 21 21 21 20 21 21 21 21 22 22 21 21 20 20 21 21 21 21 21 22 22 22 21 21 21 21 21 20 20 21 21 22 22 23 23 23 23 24 25 25 25 26 26 26 26 26 26 27 27 28 28 29 30 31 33 35 37 38 39 39 39
23 23 23 23 23 22 22 22 22 22 22 22 22 21 20 19 20 20 21 21 21 22 22 22 22 22 22 22 21 21 21 21 21 21 22 23 23 24 24 24 25 25 26 27 27 27 27 27 27 27 27 28 28 28 28 28 29 31 32 34 36 37 38
23 23 22 22 22 23 23 23 23 23 23 24 23 22 21 20 20 20 20 21 21 21 22 22 23 23 23 23 23 23 22 22 22 22 23 23 24 24 25 26 26 26 27 28 28 29 29 29 29 29 29 29 28 28 28 27 27 29 31 32 34 35 36
22 21 20 20 21 21 22 21 21 21 22 23 24 24 23 23 22 21 20 21 21 22 22 22 23 24 24 24 24 24 24 25 25 25 25 25 25 26 27 27 28 28 29 29 30 30 30 31 31 31 31 31 30 30 29 28 27 29 31 32 33 34 35
23 21 20 20 20 21 21 21 21 20 19 20 21 22 23 23 24 23 22 22 22 23 23 23 23 24 25 25 26 26 27 27 27 27 27 27 28 28 28 29 29 30 30 31 31 31 32 32 33 34 34 34 33 33 33 31 29 30 32 33 33 35 35
24 23 22 22 21 21 21 21 22 20 18 17 17 17 19 21 23 23 24 24 24 24 24 25 25 25 26 26 27 28 29 29 29 30 30 30 30 30 31 31 31 31 32 32 33 33 33 34 34 35 35 36 36 36 36 36 35 34 35 36 36 36 37
26 25 25 25 24 23 23 22 22 22 21 19 18 17 18 19 21 22 22 23 23 24 25 25 26 26 27 27 28 29 30 31 32 32 33 33 33 33 33 34 34 34 34 34 35 35 35 36 36 37 37 37 38 38 38 38 38 37 38 39 40 40 40
27 27 27 27 26 26 25 24 23 23 23 23 23 22 21 20 20 21 22 23 23 23 24 25 26 26 27 28 29 30 31 32 33 34 35 35 36 36 36 36 36 36 37 37 37 37 38 38 39 39 40 40 40 40 40 40 40 40 39 40 42 43 43
30 29 29 29 28 28 28 27 26 24 24 23 23 24 24 22 21 22 23 24 24 25 26 26 26 27 28 28 29 29 30 31 33 34 35 35 36 37 37 37 38 38 38 38 39 39 39 39 39 40 41 42 42 43 43 42 42 42 41 41 42 44 45
33 32 32 32 31 30 30 29 28 28 27 25 24 25 26 26 26 26 26 26 26 27 28 29 30 29 30 30 29 30 30 32 33 34 34 35 36 36 37 38 38 38 38 38 38 39 39 39 39 39 39 40 41 42 43 43 43 42 41 40 40 43 46
37 37 36 36 35 34 33 31 30 30 30 29 29 30 30 29 29 30 31 30 30 29 29 30 31 31 32 32 32 32 32 33 34 34 34 35 35 35 36 37 37 37 37 37 37 37 37 37 37 37 37 37 39 40 41 43 43 43 41 39 37 39 42
40 40 39 38 38 37 36 35 33 33 33 33 35 36 35 32 31 31 33 35 35 34 33 33 34 33 33 34 35 35 35 35 36 36 36 35 35 35 35 36 37 37 37 36 36 35 34 33 32 32 33 35 36 37 38 39 41 42 41 39 37 37 38
41 41 40 40 40 40 40 38 37 36 36 37 38 39 38 38 37 35 35 36 36 34 34 35 38 37 36 35 37 38 39 38 38 38 37 37 36 36 36 36 37 37 37 36 35 34 33 31 31 31 31 33 34 35 36 36 37 38 39 39 37 36 37
42 42 42 41 42 42 43 42 41 40 40 40 41 42 41 41 42 40 39 39 39 39 39 39 39 40 40 40 40 41 41 40 39 39 39 38 38 38 37 37 37 38 38 37 36 35 34 33 33 32 32 33 34 34 34 35 36 36 37 38 37 36 36
47 46 45 45 45 45 46 46 46 45 44 44 44 44 43 43 44 43 43 42 41 41 42 41 40 40 42 43 42 42 43 43 41 40 40 40 40 40 40 39 39 39 39 40 39 39 38 36 35 35 34 34 35 35 35 36 37 37 38 38 38 38 37
52 52 51 50 49 49 49 49 49 49 49 48 47 46 46 46 48 48 47 45 44 42 41 41 41 40 40 42 43 44 45 44 43 41 40 40 40 41 42 42 42 41 41 41 41 42 42 41 39 38 37 37 37 37 37 38 38 39 39 40 41 41 42
56 55 55 54 53 52 52 52 52 52 52 52 52 51 50 50 51 49 47 46 47 48 48 46 45 44 44 43 43 44 45 45 44 43 42 41 41 41 42 43 44 45 45 44 44 44 45 45 44 42 41 40 40 40 41 41 41 41 41 42 43 44 45
59 58 57 56 55 55 55 55 55 55 55 56 56 56 54 54 54 52 50 49 49 50 52 53 52 51 49 45 43 45 45 44 45 46 46 46 45 43 42 42 44 47 48 47 47 47 47 48 47 46 45 44 44 44 44 44 45 45 45 45 46 47 48
59 59 58 58 57 58 58 58 58 58 58 58 58 58 57 57 56 56 55 54 51 49 49 50 51 52 51 48 45 43 43 44 47 49 50 50 49 48 46 44 45 47 49 50 50 51 51 51 50 50 49 47 47 47 47 47 48 49 49 49 50 51 51
60 59 60 60 60 60 60 60 60 59 59 59 59 58 58 57 57 57 56 54 53 52 49 46 46 47 47 47 46 45 47 49 51 50 51 51 50 50 50 49 47 47 49 52 54 54 54 54 53 52 52 50 50 50 51 50 50 51 52 52 53 55 55
60 60 60 60 60 61 61 60 60 60 60 60 59 58 58 57 57 57 57 55 53 53 53 52 52 51 48 47 46 47 48 50 50 50 51 52 52 51 52 52 52 50 50 52 54 54 54 55 55 54 54 53 53 54 55 54 53 53 54 56 57 58 59
59 60 60 60 60 60 60 60 60 60 61 60 60 60 59 59 59 59 57 56 54 53 54 56 57 57 56 53 50 49 49 50 51 51 52 53 54 54 54 54 55 55 54 54 54 54 54 54 54 54 55 55 56 57 58 58 57 57 58 60 61 62 62
59 59 59 59 59 59 59 58 58 59 59 59 59 59 59 59 60 59 57 56 55 54 54 54 55 56 56 54 52 50 50 51 52 52 51 52 53 55 55 55 56 57 57 58 58 58 58 57 56 55 56 57 58 59 60 60 61 62 63 65 65 65 64
58 58 58 58 58 58 56 55 55 55 55 54 54 55 55 55 56 56 56 55 55 54 54 54 53 53 53 52 51 50 49 49 50 51 50 50 50 51 52 53 54 56 57 59 60 61 61 60 59 57 57 58 60 61 62 63 65 67 69 69 68 67 65
57 57 57 57 57 56 54 54 53 53 52 51 50 51 53 54 54 54 55 54 53 52 51 52 52 52 51 50 48 46 45 46 47 48 48 48 48 47 48 49 50 52 54 55 57 58 60 60 59 58 58 60 61 63 64 67 69 72 72 70 67 66 66
57 56 56 56 55 55 54 54 53 52 51 50 49 50 51 51 51 51 50 48 47 47 48 48 48 47 43 40 37 36 37 40 43 45 46 47 48 49 49 49 49 50 51 51 52 54 55 57 58 58 60 62 63 65 68 70 72 72 70 68 67 67 68
56 56 56 56 55 55 55 54 53 53 52 51 50 50 49 48 47 46 43 41 39 39 40 41 42 40 37 33 32 32 33 36 39 41 43 45 46 48 50 51 52 52 53 52 53 53 55 57 59 60 61 63 64 67 69 70 70 69 69 68 69 69 71
56 55 55 55 55 55 55 55 54 54 53 52 50 48 47 46 44 42 39 38 37 37 37 38 39 40 40 39 39 39 38 37 37 37 38 41 44 45 47 49 51 53 55 55 56 56 57 59 59 60 61 62 64 66 67 68 68 69 70 70 71 72 74
56 56 55 55 55 55 55 55 55 55 54 51 47 45 44 42 39 36 36 38 39 41 43 45 46 46 47 47 47 46 45 45 44 43 41 41 42 44 46 48 50 52 53 54 55 56 57 58 59 60 62 64 65 67 68 68 69 70 70 72 73 74 73

ECMWFFLT1_500_spd_012.txt.gz
Wind_Speed
23 23 23 23 23 23 24 24 25 25 25 25 26 26 26 26 26 26 27 27 27 26 26 26 26 26 27 28 28 28 27 27 28 30 30 30 30 27 26 27 27 27 26 23 20 18 18 21 21 22 27 32 39 45 48 48 47 47 47 47 46 46 45
23 23 23 22 22 22 22 23 23 23 23 24 24 25 25 25 26 26 26 26 26 26 26 26 26 26 26 27 28 28 27 27 28 29 30 32 32 31 30 30 30 30 31 29 25 20 18 19 20 23 26 28 30 38 44 47 48 48 47 47 48 48 46
23 22 22 22 22 21 21 22 22 22 22 22 22 23 24 24 25 25 25 24 25 25 26 25 25 25 25 26 27 27 27 27 28 28 29 30 31 32 32 33 33 33 34 33 30 25 21 20 21 23 26 27 28 31 36 40 45 48 49 49 50 49 48
22 22 22 22 21 21 21 20 20 20 20 20 21 21 22 23 23 23 23 23 23 24 24 24 24 24 24 25 26 26 26 26 27 27 27 27 29 30 31 32 33 33 33 33 31 29 26 24 24 24 25 26 26 28 30 32 38 43 47 50 51 51 50
22 21 21 21 21 21 20 20 20 19 19 19 19 19 19 20 21 21 21 21 22 22 23 22 22 22 22 23 24 25 25 25 26 26 26 25 26 27 28 29 30 31 32 32 31 31 30 28 26 25 26 25 24 25 26 27 29 33 38 44 48 50 50
22 21 21 21 21 21 20 20 20 19 18 18 18 18 17 18 18 19 19 20 20 21 21 21 21 20 21 21 23 23 24 24 25 25 26 25 24 25 26 27 27 28 28 29 29 30 30 29 28 27 26 26 26 26 26 25 26 28 31 35 39 42 44
22 21 20 20 20 20 20 20 19 19 18 17 17 17 17 16 16 17 17 18 19 20 21 21 21 20 20 20 21 21 22 23 24 24 24 24 24 23 24 25 25 25 26 26 27 27 27 27 27 27 27 27 27 27 28 28 27 29 30 31 33 35 37
20 20 19 18 18 18 19 20 19 19 18 17 17 16 16 16 16 16 16 16 17 18 19 20 21 20 20 19 19 20 20 21 22 22 23 23 23 22 22 23 23 23 24 24 24 24 25 25 25 26 26 27 27 28 29 29 29 30 31 31 32 33 35
19 19 18 17 17 17 17 18 18 18 18 17 17 17 16 16 16 15 15 15 15 16 17 19 20 20 20 19 19 19 20 20 20 21 21 22 22 22 21 21 22 22 22 23 23 23 23 23 23 23 24 25 26 26 27 28 29 30 31 31 32 33 34
17 18 18 18 18 17 17 17 17 17 17 17 17 17 16 16 16 16 15 15 15 15 15 17 18 19 20 19 19 20 20 20 20 20 21 21 21 22 21 21 21 22 22 22 22 22 22 22 22 22 22 23 23 24 24 25 26 28 29 30 31 31 31
17 17 17 17 18 18 19 18 18 17 17 17 17 17 17 17 17 17 16 16 15 15 15 16 17 18 19 19 20 20 20 20 20 20 21 21 21 22 22 22 22 22 22 23 23 23 23 23 22 22 22 22 22 22 23 23 24 26 27 28 29 29 29
19 18 18 18 18 19 18 18 18 17 16 16 16 15 16 16 17 17 18 18 17 17 16 16 17 18 19 20 20 20 20 20 21 21 21 22 22 23 23 23 23 23 23 23 23 24 24 24 24 24 23 23 23 23 23 23 24 26 27 27 28 28 28
21 21 21 21 20 20 19 18 18 16 15 15 15 15 14 14 14 15 16 18 19 19 19 19 19 19 19 20 21 21 21 21 21 22 22 23 23 24 24 25 25 25 25 25 25 25 26 26 26 26 26 26 25 25 25 25 26 28 29 29 29 30 30
23 24 24 23 22 21 20 20 19 17 15 15 15 15 14 13 13 14 14 15 17 19 20 21 21 21 21 22 22 22 22 22 22 23 24 24 25 25 26 26 26 27 27 27 27 27 27 28 28 28 28 28 28 27 27 27 27 29 31 31 32 33 33
25 25 26 25 24 23 22 21 20 19 18 16 15 15 16 16 16 17 17 16 16 17 18 20 21 22 23 23 24 24 25 25 25 25 25 26 26 27 27 27 28 28 29 29 29 29 29 29 29 29 29 30 30 29 29 30 30 30 32 33 33 34 34
26 27 28 29 28 27 26 25 23 22 21 19 17 16 16 17 18 18 19 19 18 17 18 18 19 20 21 22 23 24 25 26 27 28 29 29 29 29 29 29 29 30 31 31 31 32 32 32 32 32 32 32 32 32 32 32 32 32 33 34 35 35 35
28 29 30 31 31 30 30 29 27 25 24 23 22 20 18 18 18 18 19 20 20 20 20 20 20 20 21 22 22 23 24 25 27 28 30 31 32 32 32 32 32 32 32 32 33 33 34 34 35 35 35 35 35 35 34 34 34 34 34 35 36 36 36
30 30 31 32 34 34 33 32 31 30 29 27 26 24 23 22 22 21 21 21 22 23 23 22 21 22 23 24 24 24 25 26 27 28 29 30 32 33 34 34 34 34 34 34 35 35 35 35 36 36 37 37 37 37 36 35 35 34 34 35 36 37 37
33 33 33 33 35 37 37 36 34 34 34 32 30 29 28 28 28 28 26 24 24 24 24 23 23 24 26 27 28 28 28 28 29 29 29 29 30 32 34 35 36 36 37 37 37 36 37 36 37 37 37 38 38 38 37 37 36 35 34 34 35 36 36
36 36 35 35 37 40 41 39 38 37 37 37 35 34 34 33 33 33 33 31 29 27 26 26 27 28 29 29 30 31 31 31 32 32 32 31 31 32 34 35 37 38 38 38 38 38 37 37 37 38 38 38 39 39 39 38 38 37 35 35 35 36 36
40 40 39 38 40 41 43 42 42 41 40 40 39 37 37 37 37 37 37 36 35 32 31 31 32 32 33 31 31 31 32 33 35 35 36 35 35 34 34 35 37 39 40 40 40 39 38 38 38 38 39 40 40 40 40 40 39 38 37 36 35 35 35
42 42 42 42 42 43 44 44 43 43 43 43 42 40 39 38 39 39 40 40 39 37 36 36 36 36 36 36 35 35 36 37 38 38 39 39 39 39 38 38 38 40 41 42 42 41 40 39 39 39 40 41 41 41 41 41 40 39 38 37 36 35 35
43 44 44 43 43 44 45 45 44 44 44 44 43 42 41 41 41 42 43 43 42 41 40 40 39 40 40 40 41 40 39 39 38 37 37 38 39 40 41 40 40 41 42 44 44 44 43 42 41 40 40 41 42 42 42 41 40 39 38 37 36 36 36
45 46 46 45 44 44 45 46 46 46 46 46 46 45 45 45 45 45 45 45 44 44 43 42 42 42 43 44 44 43 41 39 38 38 38 38 39 40 41 42 42 42 43 44 45 46 46 46 44 43 42 42 42 43 43 43 43 41 40 39 38 38 38
50 51 51 50 50 48 48 48 48 49 49 50 51 51 51 50 50 49 48 47 47 47 47 47 46 45 45 45 46 46 44 43 43 44 44 44 45 46 45 44 45 45 44 45 45 46 46 46 47 46 46 45 45 45 45 46 46 45 44 43 42 42 42
55 55 55 56 56 55 53 52 52 52 53 54 55 55 55 55 54 52 51 50 50 50 51 51 50 48 47 47 47 48 47 47 47 48 48 49 50 50 48 46 46 47 47 46 46 47 47 47 47 47 47 47 48 48 48 49 49 49 49 48 47 46 46
57 57 58 58 58 58 58 57 56 56 56 57 57 57 58 57 56 55 53 53 53 52 53 53 53 52 51 49 48 47 47 47 47 48 49 49 48 48 48 48 48 49 49 48 47 48 50 51 50 50 49 49 49 49 50 51 51 51 52 52 52 51 51
58 58 58 58 58 59 59 58 58 58 57 57 57 57 57 57 57 56 56 55 55 55 54 54 54 53 53 52 51 49 48 47 47 48 49 48 45 43 44 47 49 51 50 49 48 50 53 54 54 53 53 52 52 51 51 51 52 53 54 55 55 56 56
59 59 59 58 58 58 58 57 57 57 57 57 57 57 57 57 57 58 57 58 57 57 56 56 55 55 54 54 54 53 51 50 49 49 50 50 49 48 47 48 49 50 51 51 52 52 53 55 56 55 55 54 54 54 53 53 53 53 55 55 56 56 57
58 58 58 58 58 58 58 57 57 57 57 57 57 58 58 58 58 58 58 58 58 58 58 57 56 56 56 56 56 56 55 53 52 51 51 52 53 54 54 53 51 51 52 53 54 53 53 53 53 55 56 56 56 56 56 55 55 54 55 55 55 55 56
56 56 56 56 57 57 57 57 57 57 57 57 57 58 58 58 58 58 57 57 57 57 57 56 57 58 59 58 57 55 54 54 53 53 53 53 54 54 55 55 54 54 54 54 55 55 55 53 51 52 54 56 57 58 58 58 58 58 58 58 58 59 58
53 54 54 54 54 55 55 55 55 55 55 56 56 56 56 57 57 57 57 57 56 55 54 54 55 56 54 51 50 50 51 51 52 53 53 53 53 53 53 53 53 53 53 54 55 57 57 55 53 52 53 54 55 57 58 59 59 59 60 60 61 62 62
52 52 53 53 53 53 54 54 54 54 54 54 54 55 55 55 55 56 56 55 54 52 50 49 50 48 47 47 48 49 50 50 51 51 51 51 52 52 52 52 52 52 52 54 56 56 56 55 54 54 54 52 51 52 53 54 54 55 55 56 58 59 61
52 53 53 53 53 53 54 54 54 54 54 54 54 54 54 54 54 54 54 53 51 48 47 48 50 50 50 50 50 49 49 49 49 49 49 49 49 50 50 50 50 51 52 53 54 54 53 53 53 53 53 52 50 50 51 51 52 52 53 54 55 57 58
52 52 53 54 54 54 54 55 55 54 54 54 54 53 53 53 53 52 51 50 49 47 47 48 51 51 50 49 47 47 47 46 46 45 45 46 46 46 46 46 46 47 48 49 50 50 50 51 52 51 51 51 51 51 52 52 52 53 54 56 57 57 59
51 51 52 53 54 53 53 54 54 54 54 54 54 54 53 52 52 51 50 49 49 48 47 47 48 48 48 47 46 45 44 42 41 41 41 42 43 44 44 44 42 41 42 43 44 45 47 48 49 48 48 49 50 51 52 52 53 54 56 57 58 59 61
51 51 51 52 52 52 52 53 53 53 53 53 53 53 52 51 50 50 49 49 48 48 48 48 47 47 46 44 43 42 42 42 43 43 44 45 46 47 48 49 48 48 47 47 47 47 48 48 49 49 50 52 54 55 56 57 57 59 60 61 62 63 65

ECMWFFLT1_500_spd_015.txt.gz
Wind_Speed
24 24 24 25 25 25 26 26 26 25 24 24 23 24 24 24 24 25 26 26 27 27 27 27 28 28 28 28 28 27 27 26 27 27 28 28 28 28 28 27 24 22 22 23 24 23 22 19 15 17 23 31 33 32 33 32 32 36 36 35 38 43 46
23 24 24 24 25 25 24 24 24 24 23 23 23 22 22 23 23 23 24 25 25 26 26 27 27 28 28 28 28 28 27 27 27 27 27 28 28 29 30 30 27 26 26 26 25 24 26 25 21 19 18 22 26 29 33 33 33 37 36 30 30 36 43
23 23 24 24 24 24 23 23 22 22 22 22 22 22 22 22 22 22 22 22 23 24 24 25 26 27 28 28 28 28 27 26 26 26 26 27 28 29 31 32 32 33 32 31 29 27 29 30 28 25 22 21 21 22 27 31 31 32 33 30 29 33 39
22 23 23 23 23 22 22 21 20 20 20 20 20 21 21 21 21 21 20 21 21 22 23 24 25 26 27 27 27 27 26 25 25 25 25 26 26 27 29 30 32 33 33 33 32 31 33 33 30 27 26 25 22 20 21 26 28 29 31 33 31 32 34
21 22 22 21 21 21 20 20 19 19 18 18 18 19 19 19 19 19 19 19 20 20 21 22 24 25 25 25 25 25 24 24 23 23 23 24 24 25 26 27 29 30 31 31 31 31 33 33 30 27 27 26 24 23 22 23 26 27 29 31 31 29 30
20 21 21 20 19 19 19 19 18 18 18 17 17 17 17 18 17 17 18 18 19 19 20 20 21 22 23 23 23 23 23 22 22 22 22 22 22 23 24 25 26 28 29 29 28 29 30 31 29 27 27 26 25 26 25 24 24 25 26 27 27 26 26
20 20 20 19 18 18 17 18 18 17 17 17 16 17 17 17 16 16 16 17 18 19 19 20 20 21 21 21 21 21 21 21 21 20 20 20 20 21 21 22 23 25 27 27 26 26 27 28 27 25 25 25 24 25 26 25 24 24 24 23 24 24 24
20 20 20 19 19 18 18 19 19 19 18 18 17 17 18 17 17 17 16 16 17 18 19 19 20 20 20 20 20 20 20 20 20 20 19 19 19 19 19 20 21 22 24 25 25 24 24 25 25 24 24 24 23 24 25 25 25 25 25 24 24 25 25
20 20 20 20 19 20 20 20 20 20 20 19 19 19 19 19 18 18 17 17 17 17 18 19 19 20 20 20 19 19 19 19 19 20 19 19 18 18 18 18 18 19 21 23 23 22 21 22 22 22 22 22 22 22 24 25 25 25 25 24 25 25 25
21 20 20 20 20 20 20 20 20 19 19 19 19 19 19 20 19 19 19 18 18 18 18 18 19 19 19 19 19 18 18 18 18 19 19 19 19 18 18 17 17 17 18 20 21 20 19 19 19 20 20 20 21 21 22 23 24 24 24 24 25 24 23
22 21 21 21 21 21 21 21 20 20 19 19 19 18 18 18 19 19 19 19 19 19 18 19 19 19 19 19 19 18 18 18 18 18 18 19 19 18 18 18 17 17 17 17 18 18 18 17 17 17 18 18 19 20 20 21 22 23 23 23 24 24 23
23 22 22 21 22 23 22 23 22 21 20 19 18 18 18 17 17 18 18 19 19 19 19 19 19 20 20 20 19 19 18 18 18 18 19 19 19 19 18 18 18 18 17 17 17 17 18 18 17 17 17 17 18 19 20 21 22 23 23 23 24 24 23
24 24 23 23 23 23 23 24 23 22 20 18 17 17 16 16 16 16 15 16 16 17 17 18 19 20 20 21 21 20 20 19 19 19 19 19 19 19 19 19 19 19 19 19 19 18 19 19 19 19 19 19 19 20 21 21 22 24 25 24 25 25 25
25 25 24 24 24 25 25 24 24 23 21 19 17 16 16 16 16 15 14 14 14 14 14 15 17 18 19 20 21 21 22 22 22 21 21 20 20 20 20 21 21 21 21 21 21 21 21 21 21 21 21 21 21 22 22 23 23 25 26 27 27 27 28
25 25 25 25 25 27 27 26 25 25 24 22 19 17 16 15 16 16 16 17 16 15 15 16 16 16 17 18 19 20 21 22 23 23 23 23 22 22 22 22 22 23 23 23 23 23 23 23 23 23 24 24 24 24 24 25 25 25 27 28 29 29 30
28 26 26 27 27 27 27 26 26 26 27 26 23 20 18 17 17 17 18 18 19 19 19 19 18 18 18 18 18 19 20 21 22 23 23 23 23 24 24 24 24 25 25 25 26 26 26 26 27 26 26 27 27 27 27 27 27 28 28 29 30 31 31
29 29 29 29 29 29 29 29 28 27 27 27 25 24 22 20 19 19 19 19 19 19 20 21 21 21 21 20 20 20 20 20 21 22 22 23 23 23 24 25 25 26 26 26 27 28 28 29 29 29 29 30 30 30 30 30 30 30 30 31 33 34 34
29 31 33 33 32 31 30 29 29 29 30 30 29 28 26 25 24 22 22 22 21 21 20 21 22 22 23 24 24 24 23 23 23 23 23 23 23 23 24 24 25 26 26 27 27 27 28 29 30 31 31 32 32 33 33 33 34 34 33 33 34 36 36
33 34 35 34 32 31 30 29 30 30 32 33 32 31 29 28 28 27 26 26 26 25 24 23 23 23 24 25 26 26 26 25 25 26 26 27 27 27 27 26 26 27 27 28 28 28 28 28 29 30 31 32 33 34 34 35 36 36 36 36 35 36 37
39 35 34 33 32 32 33 33 33 34 36 36 35 33 32 31 31 31 31 30 30 30 30 29 28 27 27 26 28 29 28 28 27 27 28 29 29 30 29 29 29 29 30 30 31 31 31 31 31 31 31 32 33 34 34 35 36 37 38 38 37 37 38
43 37 35 35 35 36 37 37 38 37 35 33 33 34 34 34 34 35 35 35 35 34 34 34 33 33 32 31 31 32 32 31 30 30 29 29 30 31 32 33 33 33 34 35 35 35 35 35 34 34 33 33 34 34 35 35 36 37 38 38 39 39 39
43 41 40 39 37 38 39 39 40 40 36 34 35 36 36 37 37 38 39 40 40 39 37 37 37 36 36 36 37 37 36 35 35 35 33 32 33 34 35 37 37 38 38 38 38 39 39 39 39 39 38 37 36 36 36 37 37 37 38 38 39 40 41
44 42 41 40 39 38 39 40 42 44 45 45 42 40 39 39 40 41 42 43 43 42 42 41 38 36 37 37 39 40 39 38 38 38 38 37 37 38 38 38 38 38 39 39 39 39 40 41 42 42 42 42 41 39 38 38 39 39 39 39 39 40 41
48 46 44 42 41 40 40 42 43 44 46 46 43 41 41 41 41 43 45 45 45 45 45 43 40 39 39 39 39 39 40 40 41 41 42 41 41 41 40 40 40 40 41 42 43 42 42 43 43 43 44 45 45 44 43 41 41 41 41 41 41 41 41
50 50 49 48 47 46 45 45 46 46 45 45 44 43 42 42 42 44 46 46 46 47 47 46 44 45 45 45 44 43 44 44 43 44 44 44 45 45 44 44 44 45 45 46 48 48 48 47 47 47 47 47 46 46 46 45 44 43 43 43 43 43 43
52 52 52 52 52 52 52 52 51 50 49 49 48 47 47 47 47 48 48 48 49 49 48 47 49 50 49 50 50 50 50 49 47 47 47 46 46 47 48 48 49 49 50 50 50 50 51 52 52 51 51 50 49 48 48 48 48 46 45 45 44 44 45
55 55 54 54 54 54 54 54 54 53 53 53 53 52 53 53 53 53 53 52 53 52 50 50 52 53 53 53 53 53 54 53 51 50 49 48 48 48 48 49 49 50 52 52 51 51 52 53 54 54 53 52 52 51 50 49 50 49 48 47 47 46 46
57 57 57 57 57 56 56 56 56 55 55 55 55 55 56 56 56 57 57 57 58 57 53 53 55 55 55 55 55 55 55 54 52 52 52 51 50 49 49 49 50 51 51 52 52 52 51 52 53 53 53 52 52 52 52 51 51 50 49 50 51 51 50
56 57 57 58 58 58 58 57 57 57 56 56 56 56 56 57 58 58 58 59 60 58 56 56 57 57 57 57 56 56 55 54 54 54 53 53 52 52 52 52 52 52 53 53 53 52 51 52 53 54 53 52 52 51 52 52 52 51 51 51 52 53 54
54 54 55 55 56 56 57 57 57 57 56 56 56 56 56 56 58 59 58 59 59 58 57 58 58 58 58 57 56 56 55 55 54 55 55 54 54 53 53 54 55 55 55 54 54 52 52 53 55 55 55 55 53 51 51 52 53 53 53 52 52 53 54
53 54 54 54 54 54 55 55 56 56 56 56 56 56 55 55 56 58 58 57 56 56 56 57 57 57 56 55 55 54 54 54 54 55 55 54 54 54 55 55 54 52 52 53 53 53 53 54 55 56 57 57 56 55 54 54 54 55 55 54 53 53 53
53 53 54 54 55 55 55 55 55 55 55 55 55 56 55 54 54 55 55 55 54 54 55 55 55 55 54 53 53 53 53 53 54 55 55 54 54 54 53 51 48 47 48 50 51 52 53 54 56 56 57 58 58 58 58 58 56 56 55 55 55 55 55
51 52 52 53 53 54 54 54 54 54 55 55 55 55 55 55 54 53 54 54 53 53 53 54 53 53 53 52 52 52 52 52 53 54 54 53 52 50 49 49 49 49 50 50 50 51 53 54 55 56 57 58 58 58 59 59 59 58 57 56 57 57 57
51 51 51 52 52 52 53 53 53 54 54 54 54 53 54 54 54 54 54 54 53 53 53 53 53 52 52 51 51 51 51 52 52 53 53 51 50 50 50 52 52 50 49 49 48 49 50 51 53 54 56 57 58 58 58 58 58 59 59 59 59 59 58
50 50 50 51 51 51 52 52 53 54 54 53 53 53 53 54 54 54 54 53 53 53 53 53 52 52 51 51 51 51 51 51 51 51 51 50 51 51 51 52 50 48 48 48 47 47 47 47 48 50 51 53 54 56 57 57 58 59 59 59 59 59 58
48 48 48 49 50 50 50 51 52 53 52 52 53 53 53 54 54 54 54 54 53 53 52 52 51 51 51 51 51 51 50 50 50 49 49 49 50 50 49 49 49 48 47 47 47 47 47 47 47 48 49 51 53 54 55 56 57 58 58 59 58 57 56
47 47 47 48 49 49 49 50 51 51 50 50 51 52 52 53 54 53 53 53 52 51 50 50 50 51 50 50 49 49 49 49 48 48 48 48 48 48 48 48 48 47 47 47 48 49 50 50 51 51 52 54 55 56 56 56 56 56 56 56 56 55 55

ECMWFFLT1_500_spd_021.txt.gz
Wind_Speed
16 16 16 16 16 16 17 18 19 18 18 18 18 17 17 17 17 18 18 19 19 19 19 19 19 19 20 20 20 20 20 21 21 21 20 20 19 18 18 18 18 18 19 19 18 18 19 20 19 19 19 18 19 19 17 15 15 20 29 36 38 38 40
17 17 17 16 16 16 17 18 19 19 18 18 17 17 17 17 17 18 18 19 19 19 19 19 19 20 20 21 21 20 21 21 21 22 21 21 20 20 19 19 19 20 21 20 20 21 22 21 21 21 20 19 19 18 18 19 18 16 17 25 32 35 36
19 18 18 17 17 17 17 17 18 18 18 18 18 17 17 17 17 18 18 18 19 19 19 19 19 19 20 21 21 20 20 20 20 21 21 21 20 20 20 20 20 21 21 22 22 23 23 24 23 23 22 21 20 20 20 22 22 19 17 17 23 29 33
20 19 18 18 18 17 16 16 17 17 17 17 18 17 17 17 17 17 18 18 18 18 18 19 19 19 19 19 20 20 19 19 19 19 18 18 19 20 20 20 21 21 22 22 23 24 24 25 26 25 24 24 25 26 26 25 24 22 20 18 18 22 28
21 20 19 18 18 17 16 15 15 15 16 16 16 16 16 16 16 17 17 17 17 18 18 18 18 18 18 18 18 18 18 18 18 17 17 16 16 17 19 20 21 21 22 22 23 24 24 25 26 26 26 26 27 28 27 27 26 24 21 19 18 20 23
21 19 18 18 18 17 16 14 14 15 15 15 15 15 15 15 15 16 16 16 16 17 17 16 16 16 16 16 16 16 16 16 16 15 15 15 14 15 16 18 19 21 21 22 23 23 23 24 25 26 25 25 26 27 26 25 25 24 21 19 18 18 20
20 18 18 18 18 17 15 14 13 14 15 15 15 15 15 15 15 15 15 15 15 15 15 15 15 15 15 14 14 14 14 14 14 13 13 13 13 14 15 16 17 19 20 21 22 22 22 22 23 24 24 23 24 24 24 23 23 24 21 19 19 19 19
19 18 18 18 18 17 15 13 13 13 14 15 15 15 16 16 15 15 15 15 15 15 15 15 15 15 14 14 14 13 13 12 12 12 11 11 12 13 14 14 15 16 17 18 20 20 20 20 21 21 21 21 22 22 22 21 22 23 22 19 19 19 20
18 17 17 18 18 17 15 14 14 13 14 15 15 15 15 16 16 16 16 15 15 15 15 15 15 15 15 14 14 13 12 12 11 11 10 10 11 11 12 13 14 14 15 15 17 18 18 17 18 18 19 19 20 20 20 19 20 22 22 20 19 19 19
18 17 17 17 17 17 16 15 15 15 15 16 16 16 15 15 15 15 16 16 16 16 16 16 15 15 15 15 15 14 13 13 12 11 11 10 10 11 12 13 13 14 14 14 14 15 15 15 14 14 15 16 17 18 18 17 17 19 20 20 19 18 18
19 18 18 17 16 17 18 17 16 17 17 17 17 17 16 15 14 15 15 16 17 17 17 17 17 16 16 16 16 15 14 14 13 12 12 11 11 11 12 12 13 14 14 14 14 14 14 13 12 12 12 12 14 15 15 15 14 16 18 19 19 17 17
21 20 19 18 16 16 18 19 18 18 19 19 18 17 17 16 15 15 15 16 17 18 18 18 18 18 17 17 17 16 15 14 14 13 12 12 12 12 12 12 13 13 14 14 14 14 14 14 13 12 11 11 12 13 14 13 13 14 16 17 17 17 16
24 23 22 20 17 17 18 20 20 20 21 21 20 19 18 17 16 15 15 15 16 17 18 18 18 18 18 18 17 17 17 16 15 14 13 12 12 12 12 12 12 13 13 14 15 15 15 15 14 14 13 12 12 13 14 15 14 14 15 16 17 16 16
25 25 24 21 19 18 19 20 21 22 23 24 24 23 21 19 17 16 16 15 15 16 17 17 18 17 17 17 16 16 16 16 15 15 14 14 13 13 12 13 13 13 13 14 14 15 15 16 16 16 16 15 15 15 15 16 17 17 16 17 17 18 17
28 27 25 23 21 20 20 21 22 23 24 25 26 26 25 23 20 18 17 17 17 17 17 18 18 18 17 16 15 15 14 14 14 14 13 13 13 13 13 13 14 14 14 15 15 16 16 17 17 17 17 18 18 17 18 18 19 19 19 19 20 20 20
30 29 28 27 25 23 23 23 24 24 25 26 26 26 27 26 25 23 22 20 19 18 18 18 19 19 19 18 17 16 15 14 14 14 13 13 13 12 12 13 13 14 15 15 16 17 18 18 19 19 19 19 19 20 20 20 21 21 22 22 22 22 23
30 30 31 30 29 28 28 27 27 27 27 27 28 27 27 28 28 28 26 23 22 21 21 20 20 20 21 20 20 19 18 17 17 16 15 15 14 14 13 13 13 14 14 14 15 16 17 18 19 20 20 21 21 21 22 22 22 23 24 24 25 25 25
29 30 31 31 31 32 33 32 31 30 30 30 29 28 29 29 29 28 27 26 25 25 24 23 22 22 22 21 21 20 19 19 18 18 17 16 16 15 15 15 15 15 15 16 16 16 17 18 19 20 21 21 22 22 22 22 23 23 24 25 26 26 26
31 31 32 31 30 30 32 33 32 32 33 33 33 31 29 30 30 29 30 30 29 28 27 26 25 24 23 23 22 22 22 21 21 20 19 18 18 17 17 17 17 17 18 18 19 19 20 20 21 21 22 22 23 23 23 23 23 23 23 24 25 26 27
36 36 36 35 34 32 31 32 32 32 33 33 34 32 31 31 31 30 30 32 32 32 30 29 28 27 27 27 27 26 25 25 24 24 22 22 21 21 21 21 20 20 21 21 21 22 22 23 24 24 24 24 24 25 25 24 24 24 25 25 25 26 27
39 40 41 40 40 38 37 36 36 36 35 33 31 31 32 33 33 32 32 34 34 34 33 31 31 31 30 30 30 29 29 29 28 27 26 26 25 26 26 25 24 25 25 25 25 25 26 27 28 29 29 29 29 28 28 28 28 28 28 27 27 27 28
42 43 44 44 44 43 42 41 41 40 39 36 33 33 34 34 35 36 37 36 36 35 35 34 34 35 34 33 31 30 31 32 32 31 30 30 29 30 30 29 29 29 29 30 29 29 29 30 32 33 34 34 34 34 34 33 33 32 32 31 31 31 31
47 47 47 47 48 47 46 45 45 43 41 39 38 38 38 38 39 39 37 37 37 38 37 36 36 37 37 36 35 33 31 31 31 32 32 32 32 33 34 34 33 33 33 33 32 31 31 32 33 34 35 36 36 36 36 37 36 36 36 36 36 36 36
51 51 51 50 50 50 50 49 47 45 44 42 41 41 42 42 43 43 39 37 37 39 40 38 36 37 37 36 36 35 33 31 31 31 32 33 35 36 37 38 37 37 37 37 36 35 35 35 36 36 37 38 39 39 39 39 40 40 40 40 41 41 41
52 52 53 53 52 52 52 51 50 49 47 46 45 45 46 46 46 47 45 42 40 40 41 41 39 38 38 39 38 39 39 40 40 38 37 38 39 40 41 40 40 40 40 39 39 39 39 39 40 40 41 41 42 42 43 43 43 43 43 43 43 44 45
50 50 51 52 52 53 53 53 53 53 51 49 49 48 48 48 49 49 49 47 46 44 44 45 44 42 42 43 44 44 45 47 48 45 42 41 41 41 41 41 42 42 41 41 40 40 41 42 43 43 43 44 44 45 45 46 47 48 48 48 48 48 49
47 48 48 49 50 51 51 52 53 53 53 52 51 49 47 47 48 49 50 49 49 49 49 50 50 49 47 47 47 47 47 48 49 48 46 45 44 43 42 42 43 43 43 43 44 44 45 46 47 47 47 48 48 49 50 51 52 52 53 53 53 52 52
46 47 48 49 49 49 49 50 50 51 51 51 51 50 48 48 47 48 49 50 50 51 52 52 53 53 52 51 51 51 52 52 52 52 52 52 51 49 47 47 47 47 47 48 48 49 50 51 51 52 52 53 53 54 54 55 56 56 56 56 56 55 55
49 50 50 49 49 49 49 49 49 49 50 50 50 50 50 49 49 48 48 48 50 51 52 53 53 53 53 53 53 54 54 55 55 56 56 56 56 54 53 52 52 52 52 53 52 53 53 53 54 55 55 56 56 56 56 56 57 57 57 57 57 56 55
52 52 51 49 49 49 49 49 49 49 49 49 49 50 50 50 50 49 49 47 47 49 50 51 52 52 52 52 53 53 53 53 54 54 55 56 56 56 55 54 53 53 53 54 54 54 54 55 56 56 56 57 57 56 55 56 56 56 56 56 56 55 55
52 50 49 49 49 49 48 48 49 49 49 49 49 50 50 50 50 49 49 48 47 48 49 49 49 49 49 50 50 50 50 50 50 51 52 53 54 55 55 53 52 52 52 52 52 53 53 54 54 55 55 55 55 54 54 54 54 54 54 54 54 54 54
52 50 49 48 48 48 48 48 49 49 49 50 50 50 50 50 50 49 49 48 48 49 49 49 49 49 49 48 48 48 48 48 48 49 49 50 50 51 52 52 51 51 51 51 51 51 52 52 53 53 54 54 53 53 53 54 53 53 53 53 53 53 54
53 51 49 48 48 47 48 48 49 50 50 51 51 51 51 51 51 51 50 49 49 50 50 50 50 50 49 49 48 48 48 48 48 48 48 48 49 49 49 49 50 50 50 50 50 51 51 52 52 53 53 53 53 53 53 54 53 53 53 53 53 53 54
51 50 49 48 47 47 47 48 49 49 50 51 51 51 51 51 52 51 51 50 50 50 51 51 51 51 50 50 49 49 48 48 48 48 48 48 48 48 48 48 49 49 49 50 51 51 51 51 52 52 53 54 54 54 54 54 54 54 54 53 53 54 55
50 49 48 47 47 47 46 46 47 48 49 50 50 50 50 50 50 50 50 51 50 51 51 51 51 51 51 50 50 50 49 49 48 48 48 48 49 49 49 48 49 49 50 51 51 51 51 52 52 53 53 54 54 55 55 55 55 55 55 54 55 55 56
49 48 48 47 47 47 46 45 45 46 46 47 47 48 48 49 49 49 49 49 49 49 49 49 49 49 49 50 50 50 49 49 49 49 49 50 50 50 49 49 50 50 51 52 52 52 52 52 53 53 53 54 54 55 55 55 56 56 56 56 56 56 57
49 48 48 47 47 46 45 45 44 44 44 44 45 46 47 47 47 47 48 48 48 47 46 46 46 45 45 46 47 47 48 48 49 49 49 50 50 50 50 50 50 50 50 51 51 51 51 51 51 51 52 53 53 54 54 55 55 55 55 56 56 56 57

ECMWFFLT1_500_spd_024.txt.gz
Wind_Speed
13 14 13 12 12 12 13 14 13 12 11 11 11 11 11 12 12 12 12 12 12 13 14 14 15 16 17 17 18 18 19 19 20 20 20 19 19 18 18 18 18 19 19 20 20 20 18 17 16 17 17 17 16 16 17 18 18 18 17 17 22 32 43
14 15 15 14 13 13 13 14 14 13 12 11 11 11 11 12 12 12 12 12 12 13 14 14 15 16 17 17 18 19 19 20 20 21 21 20 19 19 20 20 19 20 20 21 22 21 20 19 19 20 20 18 18 18 19 20 21 20 17 15 15 18 27
14 16 17 16 15 14 14 14 15 14 12 10 10 10 11 11 12 12 12 13 13 13 14 14 15 16 17 17 18 19 19 20 20 20 21 20 20 19 19 20 20 21 22 22 23 23 23 23 23 23 23 22 20 21 21 21 20 19 17 16 16 17 18
14 16 17 18 17 15 15 15 15 14 12 10 9 9 10 11 11 12 12 12 13 13 13 14 15 15 16 17 17 18 18 18 19 19 20 20 20 19 19 19 19 20 22 23 23 24 24 25 25 25 25 24 22 23 23 22 20 20 19 19 19 19 20
15 15 17 19 18 16 15 15 15 14 12 9 8 8 9 10 10 11 11 12 12 13 13 14 14 15 15 16 16 16 17 17 17 17 18 18 18 18 18 18 18 19 21 22 23 24 25 25 26 26 25 24 24 24 25 24 23 22 22 22 21 21 22
15 15 17 19 19 17 16 15 15 14 12 9 8 8 8 9 9 10 11 11 12 12 13 13 14 14 15 15 15 15 15 16 15 15 16 16 16 16 16 17 17 18 19 21 22 23 24 25 25 25 25 24 24 24 25 25 25 24 23 22 21 21 22
17 16 18 20 20 18 16 16 15 14 11 9 8 8 9 9 9 10 10 11 11 12 12 13 13 13 13 14 14 14 15 15 15 15 15 15 15 15 15 16 16 17 18 19 20 21 22 22 22 22 22 23 23 23 24 24 24 23 22 21 20 21 22
18 18 19 20 20 18 17 16 15 14 12 9 9 9 10 10 10 10 10 11 11 11 12 12 13 13 13 13 13 13 14 15 15 15 15 15 15 15 15 16 16 16 17 17 18 18 18 18 18 18 19 20 20 20 21 22 22 21 19 19 19 20 21
19 20 20 21 20 19 18 17 16 15 13 11 10 11 12 12 12 12 11 11 11 10 11 11 12 13 13 13 13 13 14 14 15 15 15 15 15 15 15 16 16 16 16 16 16 16 16 16 15 15 16 17 18 18 18 19 19 17 16 17 17 19 20
21 22 21 21 21 20 19 18 16 15 14 13 12 12 13 13 13 13 13 12 12 11 11 11 11 12 13 14 14 14 14 14 15 15 15 15 15 15 15 15 15 15 15 15 15 15 14 14 13 14 14 15 16 16 16 16 15 13 13 14 16 17 19
22 23 23 22 21 21 21 20 18 16 15 14 13 13 14 14 14 14 13 13 13 13 12 12 12 12 13 14 15 15 16 16 16 15 15 15 15 15 15 15 15 15 15 15 15 14 14 14 13 13 13 14 15 14 14 15 14 12 11 12 13 14 16
21 24 25 23 20 20 21 20 19 19 16 14 14 14 14 14 14 14 14 14 15 15 15 14 14 13 13 13 14 15 16 17 17 17 16 16 16 15 15 15 15 15 15 15 15 14 14 14 13 13 13 14 14 15 15 15 14 13 11 12 12 12 13
21 23 25 23 19 19 21 19 19 20 20 17 15 15 15 16 16 15 15 15 15 15 15 16 16 15 14 14 15 15 16 17 17 18 18 17 17 16 16 16 16 15 15 15 15 14 14 14 14 13 13 13 14 15 15 16 16 15 14 13 13 13 14
22 23 24 23 20 17 18 18 18 19 21 20 19 18 18 18 18 18 18 17 16 16 15 16 17 17 16 16 16 16 15 16 16 17 18 19 19 18 18 18 17 16 16 16 16 15 15 15 14 14 14 14 14 14 15 15 16 16 16 15 14 14 15
24 23 22 23 22 19 18 19 19 19 20 22 22 22 22 21 20 20 21 21 20 18 17 17 17 17 18 18 17 17 16 16 16 16 17 18 18 19 19 19 19 18 18 17 17 16 16 16 15 15 15 15 15 15 15 16 16 16 17 17 17 16 16
25 24 23 24 24 22 22 22 22 22 21 22 23 23 24 25 25 24 24 24 23 21 19 18 18 18 18 19 19 19 18 18 17 16 16 16 16 17 17 18 18 18 18 18 18 18 17 17 17 17 17 17 17 17 17 17 18 18 18 18 19 18 18
21 21 20 22 24 24 24 24 25 25 25 24 24 25 25 26 27 27 26 26 26 25 23 20 19 19 20 20 21 21 21 20 19 18 17 17 17 17 17 17 17 17 17 17 17 17 17 17 17 17 17 18 18 18 19 19 20 20 21 21 21 21 21
22 22 20 21 23 24 24 25 25 25 24 24 25 27 28 28 28 29 30 29 28 28 26 23 21 22 22 23 23 23 23 22 22 21 19 19 19 19 18 18 18 17 17 17 16 16 16 16 16 16 16 17 17 18 18 19 20 21 21 22 23 23 24
27 29 26 24 22 21 22 25 27 26 25 24 25 26 28 29 28 28 31 33 31 30 28 26 24 24 25 25 26 26 26 25 24 23 22 22 21 21 20 20 20 20 19 18 18 18 17 17 17 18 18 18 19 19 19 20 21 21 22 23 23 24 24
31 32 33 31 28 27 29 30 30 30 29 28 28 28 28 29 28 27 29 32 32 31 30 29 28 28 27 27 28 29 30 29 28 27 26 25 24 23 23 22 22 22 22 21 21 21 21 20 20 21 21 21 22 22 22 22 23 24 24 24 25 25 25
37 36 36 35 35 36 37 35 33 33 33 32 32 32 31 32 32 31 30 29 29 31 31 30 30 30 30 30 30 31 33 33 32 31 30 29 28 28 28 27 27 26 25 25 25 25 25 24 24 24 25 25 25 25 25 26 27 27 28 28 28 28 28
40 40 39 39 39 40 40 39 38 37 37 37 36 36 35 35 34 34 33 31 31 32 32 32 31 31 32 32 33 33 34 35 36 35 34 32 31 31 32 32 31 30 29 29 29 29 29 28 29 29 29 30 31 30 30 31 31 32 32 33 33 33 33
42 42 41 41 42 42 42 42 42 41 40 41 41 41 40 39 38 37 36 36 35 35 35 35 34 34 34 34 33 34 35 37 39 39 38 36 35 34 34 35 35 34 33 33 33 32 32 32 33 33 34 35 35 35 35 34 34 35 35 35 36 36 37
42 42 43 43 43 44 44 44 44 43 43 43 43 43 43 42 42 42 41 40 39 38 38 37 37 37 38 37 36 36 37 38 39 41 42 40 38 37 36 35 35 34 34 34 34 34 35 36 37 37 38 39 39 39 39 38 38 38 38 38 38 38 39
42 42 42 43 44 45 46 46 46 45 44 43 43 42 42 42 43 43 43 42 42 41 41 40 40 40 40 41 41 40 40 39 38 39 40 40 39 38 36 35 34 34 35 36 37 39 40 40 40 40 41 41 42 42 42 42 42 41 41 40 40 41 41
41 41 41 41 42 42 43 44 44 44 43 42 41 41 41 41 41 42 42 43 43 42 42 43 43 43 43 43 44 44 44 43 41 40 40 40 40 40 40 39 39 39 40 42 43 43 42 42 42 43 43 43 44 44 44 45 44 43 43 42 42 43 44
43 43 43 43 43 42 42 41 42 42 43 43 42 41 41 41 41 41 42 42 42 42 42 43 44 45 45 44 45 46 46 47 47 46 45 44 43 44 44 45 46 46 46 47 47 45 43 44 44 45 46 46 46 46 47 48 48 47 46 46 46 47 48
45 45 44 44 44 44 43 43 44 45 45 46 45 44 44 44 44 43 43 42 42 42 42 43 43 44 46 46 46 47 47 48 48 49 49 48 48 49 49 50 51 53 53 53 51 48 47 47 48 48 49 49 49 50 52 53 53 52 52 52 52 52 53
46 45 45 45 45 45 46 46 47 47 48 48 48 49 49 49 47 45 44 44 43 43 43 43 43 43 45 46 46 46 47 47 48 49 50 51 51 52 53 53 54 56 56 56 55 53 52 52 52 53 53 53 54 56 57 57 57 57 57 57 57 57 57
47 47 46 46 47 48 49 49 49 50 50 50 51 52 52 51 49 47 46 45 45 44 44 44 44 44 44 44 45 45 46 46 47 49 50 51 52 52 53 53 53 53 54 55 55 55 55 55 54 54 54 55 56 57 58 58 58 58 59 59 59 59 59
49 49 49 50 51 51 51 51 51 51 51 52 53 53 52 51 50 49 48 47 46 45 44 44 44 44 44 44 44 45 45 46 47 48 49 50 51 51 51 51 51 51 52 53 53 54 54 54 54 54 54 54 54 54 55 56 57 58 59 59 59 59 59
52 53 54 55 54 54 53 53 52 52 53 54 53 52 51 51 51 50 50 49 48 47 46 46 45 45 45 45 45 45 45 46 47 47 48 49 50 50 50 50 51 51 52 52 53 53 54 54 54 54 54 54 53 53 54 54 55 56 57 57 57 57 58
58 59 59 58 56 55 55 54 54 54 54 53 53 52 51 50 50 50 50 50 49 49 48 48 47 47 47 47 47 47 47 47 47 48 48 48 49 49 49 50 50 51 52 52 53 54 54 54 55 55 55 54 54 54 54 54 55 55 56 56 56 57 57
59 58 57 56 55 55 55 54 54 54 53 53 52 52 51 50 50 50 49 49 49 49 48 48 48 48 48 48 48 48 48 48 48 49 49 49 49 49 50 50 50 51 51 52 52 53 54 54 54 54 54 54 55 55 55 55 56 56 56 57 57 57 58
59 57 55 54 53 53 53 53 53 52 52 51 50 50 50 50 50 49 49 49 48 48 48 47 47 47 47 47 47 47 47 47 48 48 48 48 49 49 50 50 51 51 52 52 52 52 52 53 53 54 54 55 55 55 56 56 57 57 58 58 58 59 59
58 56 54 53 53 52 52 52 51 50 49 49 48 47 47 48 48 48 48 48 47 47 47 46 47 47 47 46 46 46 46 46 46 46 46 46 47 47 48 49 50 51 51 51 51 51 52 52 53 53 54 54 55 55 56 57 57 58 58 59 59 60 60
57 55 54 54 53 52 52 52 51 50 48 46 45 45 45 46 46 46 47 47 47 47 46 46 46 46 46 46 45 44 45 45 45 44 44 44 44 44 44 45 46 47 48 48 49 50 50 51 51 52 52 52 53 54 54 55 56 56 57 57 58 58 58

ECMWFFLT1_500_spd_027.txt.gz
Wind_Speed
15 14 17 19 19 17 16 16 15 13 13 13 14 13 12 12 13 13 14 15 16 17 18 19 19 20 20 20 21 21 22 22 21 22 22 21 21 21 21 22 23 23 23 23 22 22 21 21 21 20 20 20 19 20 20 20 18 19 20 18 16 17 19
15 14 17 21 22 21 18 16 15 13 13 13 14 14 13 12 12 13 13 14 15 16 16 16 17 17 18 18 19 20 21 21 22 22 23 23 23 22 22 22 23 24 24 23 23 22 23 23 23 21 21 20 20 19 20 20 20 19 20 19 17 15 14
14 13 16 21 24 25 22 17 15 13 12 13 14 14 14 13 12 12 13 13 14 15 15 15 15 16 17 18 19 20 21 21 22 23 23 24 24 23 23 22 23 24 25 25 24 24 24 24 24 23 22 21 21 22 21 21 21 20 19 20 21 19 16
18 18 20 23 24 26 24 19 16 14 12 12 13 14 14 13 13 12 12 12 13 14 15 15 15 16 17 18 19 20 21 21 22 23 23 24 24 23 23 23 23 25 25 25 25 25 25 25 25 25 25 25 25 25 25 24 23 22 21 22 22 21 19
20 22 25 26 25 24 23 19 17 15 13 12 12 13 14 13 13 12 11 12 12 13 14 14 15 15 16 17 18 19 20 20 21 22 22 22 23 22 22 22 23 24 25 25 26 26 26 26 26 26 27 28 27 27 26 26 25 24 24 24 24 23 22
21 23 24 25 23 21 19 18 17 16 14 13 12 12 13 13 12 12 12 11 12 12 12 13 13 14 14 15 16 17 18 19 20 20 21 21 21 21 21 21 21 22 23 25 26 26 26 26 26 27 27 27 27 26 26 26 26 26 25 26 25 25 25
22 23 22 21 20 20 19 17 16 16 15 14 12 12 13 12 12 11 11 11 12 12 12 11 11 12 13 14 15 16 17 18 18 19 19 20 20 21 21 21 21 21 22 23 25 26 26 26 26 26 27 26 26 25 24 25 25 25 25 25 25 25 25
20 20 19 18 19 20 20 18 17 16 15 14 13 13 13 13 11 10 10 11 11 12 12 12 11 11 12 12 13 14 15 16 17 17 18 18 19 19 20 20 20 20 21 22 23 24 25 25 25 25 25 25 25 24 23 23 23 24 24 24 24 24 24
18 17 16 16 17 19 21 19 18 17 16 15 15 14 14 14 12 11 10 11 11 12 12 12 13 12 12 11 11 12 12 13 14 15 16 17 17 18 18 19 20 20 20 21 22 23 24 24 24 24 24 24 24 23 22 21 21 22 22 22 22 22 22
17 16 15 15 17 20 22 21 20 18 16 15 15 15 16 15 14 13 12 11 12 12 12 12 12 12 12 12 12 12 12 12 13 13 14 15 15 16 17 17 18 19 20 20 21 21 22 22 22 22 23 22 22 21 21 20 20 21 21 22 21 21 21
17 17 16 17 18 20 23 24 22 19 17 16 15 15 16 16 17 16 15 13 13 13 13 12 12 12 12 13 13 14 14 13 13 13 13 14 15 15 15 16 16 17 18 19 19 19 20 20 20 20 20 20 19 19 19 19 18 18 19 20 20 20 20
16 16 17 18 17 20 24 25 23 20 17 16 16 16 16 17 17 18 17 16 15 13 13 13 13 12 12 12 13 14 14 15 15 14 14 14 14 15 16 16 16 16 17 18 18 18 18 18 18 18 18 17 17 16 16 16 15 15 16 17 17 17 18
12 14 16 18 17 19 23 24 21 19 18 17 17 17 17 17 17 17 17 16 15 14 13 13 13 13 13 13 13 13 14 14 15 15 15 15 15 16 16 16 17 17 17 18 18 18 18 17 17 17 17 17 16 15 15 15 14 13 13 14 15 15 15
16 17 17 19 19 19 21 22 21 21 19 17 16 16 16 16 16 17 16 16 15 14 14 14 14 14 15 15 15 14 14 14 15 15 16 16 16 17 17 17 18 18 18 18 18 18 18 18 18 17 17 17 17 16 16 15 15 14 14 13 14 14 15
21 19 18 19 20 20 21 22 23 23 23 20 18 16 16 16 16 16 16 16 16 16 15 15 15 15 16 16 16 16 15 15 15 16 16 16 17 17 17 18 18 19 19 19 19 19 18 18 18 18 18 18 18 17 17 16 16 16 16 15 15 15 16
21 19 18 20 20 20 21 22 23 25 25 24 22 19 17 17 17 17 16 15 15 16 16 16 16 17 17 17 17 17 16 16 16 17 17 17 17 17 17 18 18 19 19 20 20 20 19 19 19 19 19 18 18 18 18 17 17 17 17 17 17 17 17
22 21 19 19 18 17 18 21 23 25 26 24 22 21 19 19 18 18 18 18 19 19 19 19 19 19 20 19 19 19 19 19 19 18 19 19 19 19 19 18 18 18 19 20 20 20 21 20 20 20 20 20 19 19 19 18 18 18 18 17 18 18 18
23 21 19 18 17 16 18 19 20 22 24 23 22 22 22 22 21 20 21 22 23 24 23 22 22 23 23 22 21 21 21 21 21 20 20 20 21 21 21 21 20 20 20 20 20 21 21 21 21 21 21 20 20 20 19 19 18 18 18 18 18 18 18
19 16 17 20 20 20 20 19 17 18 20 20 20 21 22 23 22 20 20 20 21 23 24 23 24 24 24 24 24 23 23 23 23 22 22 22 23 23 23 23 23 23 22 22 22 22 22 22 22 22 21 21 20 20 20 20 20 19 19 19 19 19 19
21 22 25 26 23 21 20 20 21 22 22 23 22 21 22 23 24 23 22 21 20 22 24 24 25 26 25 24 25 25 24 25 25 24 24 24 24 25 25 26 26 26 26 25 24 24 24 24 24 23 23 23 23 22 22 22 22 22 22 22 22 22 22
27 29 29 26 23 23 23 24 25 25 25 26 27 26 26 27 28 27 26 25 25 26 26 26 26 27 27 26 26 26 27 28 28 28 27 26 27 27 28 28 29 29 29 28 27 27 27 27 26 26 26 26 26 26 26 25 25 25 25 26 25 25 26
30 30 29 28 28 29 29 29 27 27 27 28 28 28 27 27 28 28 28 29 29 29 29 28 28 27 27 28 28 29 29 30 30 30 30 29 29 30 30 31 31 32 31 31 31 31 32 32 31 30 30 30 30 30 30 29 29 29 29 29 30 30 30
31 31 31 32 33 34 33 32 31 30 30 30 30 30 29 30 31 32 31 31 31 31 31 31 31 30 29 30 31 32 32 33 32 33 33 32 32 33 34 35 35 35 34 33 33 34 35 36 36 36 35 34 34 34 34 33 32 32 32 33 34 34 34
33 34 34 35 35 35 34 34 33 33 33 33 34 34 35 36 35 35 34 34 34 34 33 33 33 32 32 33 33 34 34 35 34 34 35 34 34 36 38 40 40 40 39 38 37 37 38 38 40 41 41 39 38 38 38 36 35 35 36 37 38 38 38
40 40 40 39 37 36 35 34 34 34 35 35 35 35 36 36 35 35 35 35 35 35 34 34 34 34 34 35 35 36 37 37 37 37 37 37 37 38 39 41 42 42 42 42 42 42 41 41 42 43 44 43 41 41 41 40 39 40 41 41 42 42 42
44 44 43 41 39 38 37 36 35 35 35 35 35 35 35 35 34 33 33 34 35 35 35 34 34 35 36 36 37 37 38 39 40 40 40 40 40 41 41 42 42 42 42 43 44 44 44 44 44 43 43 42 41 42 44 45 45 45 46 46 46 47 46
44 43 42 41 40 39 38 37 37 37 37 37 37 37 37 36 35 34 34 35 36 36 37 36 36 37 38 39 39 39 40 41 41 42 42 42 42 43 44 44 44 44 44 45 46 46 46 47 46 44 43 42 43 46 50 51 51 52 52 53 52 51 51
43 42 41 40 39 39 39 39 39 40 40 40 40 39 38 37 37 37 38 38 39 40 40 41 41 41 41 41 42 42 42 42 42 42 43 44 44 45 46 46 47 47 47 48 49 49 49 50 50 49 49 49 50 52 54 55 56 57 57 56 56 55 55
44 43 43 42 41 42 42 43 42 42 42 42 41 40 39 39 39 40 41 42 43 43 44 45 45 45 44 43 42 43 43 43 43 43 43 44 45 46 47 48 49 50 50 51 51 52 52 53 54 54 54 54 55 57 58 58 59 59 58 58 58 58 58
48 47 47 46 46 46 46 46 46 45 44 44 43 42 42 42 42 43 44 45 46 46 47 48 48 48 47 45 43 43 44 44 44 44 44 44 45 46 47 48 49 51 52 52 52 52 53 54 54 54 55 55 56 57 58 59 59 59 59 60 60 60 60
50 50 51 51 51 50 49 49 49 48 47 46 46 45 45 45 46 47 47 47 48 48 48 49 50 51 50 48 46 45 44 44 44 44 44 45 45 45 46 47 49 50 51 52 52 53 53 54 54 54 54 55 55 56 56 57 58 59 59 60 60 60 60
49 49 50 51 52 52 52 51 50 50 49 48 48 48 48 49 51 51 50 49 49 50 50 51 51 51 51 50 49 48 47 46 45 45 44 45 45 45 46 47 48 49 50 51 51 52 53 54 54 55 55 56 56 56 56 57 58 58 59 59 60 60 60
47 48 48 48 49 50 50 49 49 50 50 50 50 52 53 54 53 52 51 50 51 51 52 52 51 51 50 50 49 49 48 47 46 46 46 45 45 46 46 46 47 48 48 49 50 51 52 53 54 55 56 56 56 57 58 59 59 59 59 60 60 60 61
48 50 51 50 51 51 52 52 53 54 54 54 55 56 56 54 52 51 51 51 51 51 51 51 50 50 49 49 48 48 47 47 47 46 46 46 46 46 46 46 46 47 47 48 48 49 50 51 52 53 54 55 56 57 58 59 59 59 60 60 60 61 61
54 55 57 57 58 59 60 60 59 59 59 59 59 58 56 54 52 51 51 50 50 50 49 49 48 48 47 47 47 46 46 46 46 46 46 46 46 46 46 46 46 46 46 47 47 49 49 50 50 51 53 54 55 56 57 58 58 59 59 60 60 61 61
64 65 65 65 64 64 63 62 61 60 61 61 59 58 56 54 52 51 50 49 49 48 48 47 47 46 46 46 46 45 45 45 45 45 45 45 46 46 46 46 46 46 46 46 46 46 47 47 48 49 50 50 51 52 53 54 55 55 56 57 58 59 60
67 67 67 67 66 64 62 60 59 60 60 59 58 57 55 53 51 50 49 48 47 47 46 46 46 46 46 46 46 46 45 45 44 44 45 45 45 45 46 46 46 46 45 45 45 45 45 46 47 47 47 48 48 48 49 49 49 50 51 52 52 53 55

ECMWFFLT1_500_spd_030.txt.gz
Wind_Speed
18 16 14 13 14 13 10 10 13 17 19 20 20 19 18 18 19 20 21 20 20 20 20 21 22 22 23 24 24 25 25 25 25 25 24 23 22 22 22 22 22 22 24 24 22 21 21 22 23 22 21 22 22 22 21 20 20 22 22 23 23 23 21
18 18 17 16 15 14 11 11 13 16 19 21 21 20 19 18 19 21 21 21 21 20 20 20 20 21 21 22 22 23 23 24 24 24 24 23 22 22 22 22 23 24 25 24 23 23 23 23 24 24 22 21 22 23 22 21 22 23 24 24 24 23 22
18 18 19 18 17 16 16 18 18 16 17 20 21 20 19 18 18 20 21 22 21 21 20 19 19 19 19 20 20 20 21 21 22 22 23 22 22 22 22 22 24 25 24 24 24 24 24 24 24 25 24 22 22 24 24 22 22 23 23 23 23 23 23
18 17 18 18 18 19 20 22 19 15 15 17 18 19 19 18 18 19 20 21 22 21 20 19 18 18 17 18 18 18 19 20 21 21 22 22 22 22 22 23 25 25 24 25 25 25 24 24 25 26 26 25 25 25 25 25 25 24 23 23 24 24 24
18 18 19 19 19 19 19 19 16 13 13 14 15 17 17 17 17 18 19 20 21 20 20 18 17 17 16 17 17 17 17 18 19 20 21 21 21 22 22 22 23 25 25 25 26 26 26 26 26 27 27 27 26 26 26 27 28 27 26 26 26 26 26
19 19 20 20 20 18 17 15 13 12 13 13 14 15 16 16 16 17 17 18 19 19 18 17 17 16 16 16 16 16 16 17 18 18 19 19 20 20 20 21 22 23 24 24 25 26 26 27 27 28 29 28 28 27 27 28 29 29 29 28 27 27 27
17 19 20 21 19 17 15 14 13 13 14 14 13 13 14 15 15 16 16 17 17 16 16 16 16 16 15 15 15 14 15 16 16 16 17 17 17 18 18 19 20 21 22 23 24 25 26 27 27 28 28 28 28 28 28 29 29 29 30 29 28 27 27
18 20 20 20 18 15 13 12 13 13 13 13 13 13 14 15 14 14 15 16 15 15 14 14 15 15 15 15 14 14 14 15 15 16 16 16 15 15 16 16 17 18 19 20 21 23 24 25 26 26 26 27 26 26 27 28 28 28 28 28 28 27 26
19 20 20 19 18 15 12 11 13 13 13 14 14 14 15 15 15 14 14 15 15 14 14 14 14 15 15 15 15 15 15 15 15 16 16 16 15 15 14 14 15 16 16 17 18 19 20 21 22 22 22 22 22 23 24 25 26 26 26 26 26 26 25
17 17 19 19 18 15 11 12 15 15 15 16 16 16 16 15 15 15 14 14 14 14 14 14 14 14 15 15 15 15 16 16 16 16 16 16 16 15 14 14 14 14 15 15 16 17 18 18 18 18 18 18 18 18 19 21 22 22 22 23 23 24 24
15 15 17 17 16 14 11 15 17 17 17 18 18 18 17 16 16 16 15 14 14 14 14 15 15 15 15 15 15 16 16 16 17 17 17 17 16 16 15 15 14 14 14 14 15 15 16 17 17 16 16 15 15 15 15 16 17 18 18 18 19 20 21
12 13 14 13 13 13 13 15 17 17 18 19 20 19 18 18 18 17 16 15 14 14 14 14 14 14 15 15 15 15 16 16 17 17 17 17 17 17 16 16 15 15 14 14 15 15 15 16 16 16 15 15 14 14 14 14 14 14 15 15 15 16 17
10 10 9 9 11 13 15 16 17 18 19 19 20 19 17 18 18 17 17 15 14 14 13 13 13 13 14 14 15 15 15 16 16 17 17 17 17 17 16 16 16 16 16 16 16 16 16 16 16 16 15 15 14 14 14 14 13 13 13 13 13 13 14
10 9 9 11 13 14 16 17 18 19 21 20 19 18 18 18 18 17 16 15 14 14 13 13 13 13 13 13 14 15 15 16 16 16 17 17 17 17 17 17 17 16 16 16 17 17 17 18 17 17 16 16 15 15 14 14 14 14 13 13 13 13 14
11 11 12 13 14 15 16 17 17 19 22 22 21 19 18 19 19 19 17 15 14 14 13 13 14 13 13 12 12 14 15 16 15 15 16 16 16 17 17 17 17 17 17 17 17 17 18 18 18 19 18 18 17 16 16 16 16 15 15 15 15 14 15
13 13 14 14 15 15 17 18 17 18 22 24 22 20 18 19 20 20 18 16 14 13 13 13 13 13 13 13 13 13 14 16 16 16 15 16 16 16 16 17 17 17 17 17 17 17 17 18 19 19 19 19 19 18 18 18 18 17 17 17 17 16 16
14 15 15 15 16 17 18 18 17 16 18 20 21 21 21 20 20 20 19 18 16 14 14 14 14 15 16 17 16 15 16 17 18 18 17 17 17 17 17 17 17 17 18 18 18 18 18 18 19 20 20 21 21 21 21 20 20 20 19 19 19 19 19
16 16 16 15 16 16 15 15 16 16 17 18 20 23 24 22 20 18 18 19 19 17 16 17 18 20 21 22 20 18 18 18 19 19 19 18 18 18 18 18 18 19 19 20 20 20 20 20 20 20 20 21 22 22 23 22 22 22 21 21 21 20 20
21 20 19 16 14 14 14 15 18 20 20 19 19 21 22 21 19 17 16 17 19 19 19 19 20 21 21 22 21 21 20 19 19 20 21 20 19 18 19 19 19 20 21 21 22 22 22 22 22 22 22 22 23 23 23 23 23 23 23 22 22 21 21
26 26 24 20 18 19 20 21 22 22 21 19 19 21 23 23 21 20 19 19 20 20 19 18 18 18 20 20 21 22 22 21 20 21 22 22 21 21 21 21 22 22 22 23 24 24 24 24 25 25 25 24 25 25 25 25 25 24 24 24 24 23 23
30 31 30 26 23 23 23 23 23 22 21 21 21 22 23 24 23 22 24 24 24 24 24 23 22 23 24 24 24 25 25 24 23 23 23 23 23 24 24 25 26 25 25 25 25 26 27 27 28 28 28 27 27 27 27 27 27 27 27 26 26 26 26
33 33 32 31 28 26 24 23 23 23 23 25 25 23 23 24 24 25 26 27 28 29 28 27 28 30 31 30 29 29 28 26 26 26 26 26 26 27 27 28 29 29 29 29 28 27 28 28 30 30 31 31 31 30 30 30 30 31 31 30 30 30 30
35 34 33 33 31 29 27 25 24 25 26 28 28 27 27 28 30 32 32 31 31 30 29 30 32 34 35 34 32 31 30 29 29 29 29 29 29 29 30 31 32 32 33 33 32 31 30 30 31 31 32 34 34 34 34 34 35 36 36 36 36 36 36
38 35 34 34 33 31 30 28 28 29 30 30 30 30 30 32 33 35 35 35 34 33 33 33 34 35 35 34 33 31 30 30 31 31 32 32 32 32 32 34 35 35 36 36 36 35 35 34 34 34 35 36 37 38 37 37 37 38 40 41 42 42 42
40 37 35 35 35 34 33 33 34 34 34 34 33 33 33 34 34 35 35 35 34 34 33 33 33 33 32 31 30 30 29 30 30 31 32 34 34 35 35 36 37 38 39 39 39 39 38 38 38 38 38 38 39 40 41 41 40 40 41 44 46 46 46
40 38 37 37 37 38 39 39 40 39 39 37 36 35 35 35 35 34 34 33 33 33 34 34 34 32 30 29 29 29 29 30 31 32 33 34 35 37 38 39 40 40 41 41 42 42 42 42 43 43 43 43 43 43 43 43 43 42 44 47 48 47 48
39 38 39 40 41 41 42 42 41 41 40 39 37 36 35 35 35 34 33 33 33 34 35 35 34 33 32 31 31 32 32 32 33 34 35 36 37 38 39 41 42 42 43 43 44 45 45 45 46 47 47 47 47 47 46 45 44 44 47 50 50 50 51
40 40 42 43 43 42 42 42 41 41 40 39 37 36 35 34 34 34 34 35 35 36 36 36 35 35 35 35 35 36 36 37 37 37 38 38 38 39 41 42 43 44 44 45 46 47 47 48 48 48 49 49 50 50 50 49 47 48 50 52 52 53 54
40 40 41 42 42 42 42 41 41 40 39 39 38 38 37 37 37 37 38 38 38 37 37 37 37 37 37 37 38 39 40 40 40 40 40 40 40 40 41 42 43 44 45 46 47 48 49 49 50 50 51 51 51 51 51 52 52 53 54 54 54 56 57
39 39 39 40 41 42 42 42 42 42 42 42 41 41 41 41 41 41 41 40 40 39 39 39 40 40 40 40 41 42 43 43 43 43 42 42 41 41 40 41 43 44 45 46 47 48 49 50 50 51 52 52 53 53 53 54 54 55 55 56 57 58 59
42 42 42 43 43 44 45 46 46 46 45 44 44 44 44 43 43 43 43 42 42 41 41 41 42 42 43 44 45 46 46 45 45 44 44 44 43 43 42 41 42 43 44 45 47 48 48 49 50 51 52 52 53 54 55 55 55 56 56 57 58 59 60
47 47 48 49 49 49 50 50 50 49 47 46 45 44 44 45 44 44 43 42 42 42 42 42 43 44 45 47 48 48 48 47 46 45 45 44 44 44 44 43 42 42 43 44 45 46 47 48 49 50 51 51 52 53 54 55 55 56 57 58 59 60 61
46 45 45 46 47 48 48 48 48 47 46 45 44 44 44 45 45 44 43 42 42 42 43 44 45 47 48 49 50 49 48 47 46 46 45 45 45 45 45 44 44 43 43 43 44 45 46 46 47 47 48 49 50 51 52 52 53 54 56 56 57 58 59
46 44 42 40 40 40 40 40 40 41 42 42 43 44 44 43 44 44 44 44 44 45 47 49 50 50 51 51 51 50 48 47 46 45 45 45 45 45 45 45 44 44 44 44 44 44 45 45 45 45 46 47 48 48 49 50 51 52 53 54 55 56 57
49 48 46 43 42 41 40 38 37 39 41 42 45 48 48 47 47 48 49 50 51 52 54 54 54 54 53 52 51 49 48 47 46 45 45 45 45 44 44 44 44 44 44 44 45 44 45 45 44 45 45 46 47 47 48 49 50 50 51 52 52 53 54
54 52 50 49 47 47 46 45 44 44 45 46 48 50 51 51 52 53 55 58 59 60 59 57 55 53 52 50 49 48 47 47 46 45 45 44 44 44 43 44 44 44 44 44 45 45 45 44 44 44 45 46 47 48 48 49 49 50 50 51 51 52 53
58 58 57 56 55 53 52 52 51 51 52 53 53 53 54 56 58 60 63 64 64 61 58 55 53 51 49 48 47 47 47 47 46 46 45 44 44 44 43 43 43 44 44 44 44 45 44 44 44 44 45 45 46 47 48 48 49 50 50 51 52 52 53

ECMWFFLT1_500_spd_033.txt.gz
Wind_Speed
18 17 16 15 15 17 17 15 15 14 13 13 14 15 14 14 16 18 19 19 20 20 21 21 21 21 21 21 21 21 21 21 22 22 22 22 22 21 20 20 20 20 20 20 20 20 20 20 21 20 19 19 19 20 21 22 22 22 22 21 22 23 23
18 18 16 15 15 17 18 18 17 16 16 18 20 20 17 15 16 17 19 20 20 20 21 22 22 22 22 22 22 21 21 21 21 21 21 20 20 20 20 19 19 19 20 20 20 20 21 21 22 22 21 21 21 21 22 23 23 23 23 22 22 23 23
19 18 17 16 15 16 17 19 19 20 20 22 23 21 18 16 16 17 18 19 20 21 22 23 23 23 23 23 23 22 22 22 21 21 21 20 19 19 19 18 18 19 20 20 20 20 21 21 22 23 23 23 22 22 22 23 24 24 23 22 22 23 23
20 19 17 16 16 15 15 17 19 21 22 22 21 20 17 16 16 17 18 18 19 20 21 23 24 25 24 24 24 23 23 23 22 21 21 20 19 19 18 18 18 19 19 20 20 19 20 21 22 23 23 22 21 21 23 24 24 24 24 23 23 23 23
22 21 18 16 16 16 16 16 18 20 21 21 19 17 15 15 15 16 17 18 18 19 20 22 24 25 25 25 25 25 24 23 22 22 21 20 20 19 19 18 18 18 19 19 19 19 19 20 21 22 23 23 22 22 23 24 24 24 24 24 25 26 26
23 22 19 17 17 17 17 16 17 19 19 18 17 15 14 14 14 15 16 17 18 18 19 20 22 24 25 25 25 25 25 24 23 22 21 20 20 19 19 18 18 18 18 18 18 18 18 19 20 21 22 23 23 23 23 24 24 24 25 25 26 27 28
23 21 18 17 17 17 17 16 17 18 16 16 15 15 14 13 13 14 15 16 17 17 18 20 21 22 23 24 24 24 24 23 22 21 21 20 20 19 18 18 18 18 18 17 17 17 17 18 19 20 21 21 21 22 22 24 24 25 26 26 27 27 28
21 19 18 18 18 19 18 17 17 17 16 15 15 14 14 13 13 13 14 15 16 16 17 19 20 21 22 22 22 22 22 21 20 20 19 19 19 18 18 17 17 17 17 17 17 17 17 17 17 18 19 20 20 20 20 21 22 23 24 25 26 26 27
15 16 17 19 21 22 20 18 18 17 15 15 14 13 13 13 13 13 13 14 15 16 17 18 19 20 21 21 21 21 20 19 19 19 18 18 18 17 17 17 17 16 16 16 16 16 16 16 16 17 17 18 18 19 19 20 20 21 21 22 22 23 24
11 12 15 18 20 21 19 19 19 18 17 16 15 15 14 13 13 13 14 14 15 16 16 17 18 19 19 20 20 20 19 19 18 18 18 18 17 17 16 16 16 16 16 16 15 15 15 16 16 15 16 16 17 17 18 19 19 19 19 19 20 20 20
10 11 13 16 18 18 18 19 19 18 18 18 17 16 16 14 14 14 14 14 15 17 18 18 18 19 19 20 20 20 19 18 18 17 17 17 17 17 16 16 16 16 16 16 15 15 14 14 15 15 15 15 15 15 16 16 17 17 17 18 18 18 18
10 11 12 14 15 16 15 15 15 16 17 17 17 18 17 15 14 13 13 14 15 17 18 19 20 20 20 20 20 20 19 18 17 16 16 16 16 16 16 16 16 16 16 16 16 15 15 15 14 14 14 14 14 14 14 15 15 16 16 16 16 16 16
10 11 13 13 13 14 12 11 12 15 16 16 17 17 15 13 12 11 11 12 13 15 17 18 19 20 20 20 19 19 18 18 17 16 15 15 15 15 15 15 15 16 16 16 16 16 16 16 15 15 14 14 14 14 14 14 14 15 15 15 15 15 15
11 12 13 13 13 13 13 12 13 15 17 18 19 17 15 14 13 13 13 13 12 13 15 17 17 18 18 18 17 17 17 17 16 15 15 15 15 15 15 14 14 15 15 16 16 16 16 16 16 17 16 16 15 15 14 14 14 15 15 15 15 15 15
13 13 14 15 15 15 15 15 15 16 18 20 20 19 17 16 15 16 16 15 15 15 16 17 18 18 17 16 16 15 15 15 15 14 14 14 14 15 15 15 15 14 15 15 15 15 15 15 16 16 16 16 16 16 16 16 16 16 16 17 17 17 17
13 14 15 15 16 16 16 16 16 17 19 20 21 21 19 17 16 16 17 17 17 17 17 18 18 19 18 18 17 15 14 14 14 15 15 15 15 15 15 15 16 16 16 16 15 15 15 16 16 16 16 16 16 16 16 16 16 17 17 18 18 19 19
12 14 16 16 15 15 16 16 17 18 20 21 21 20 19 17 16 16 17 18 18 17 18 19 19 19 19 18 17 16 16 16 16 17 17 17 17 17 17 17 17 17 17 17 17 17 17 17 17 17 17 17 17 17 17 17 17 17 18 18 19 20 21
14 15 16 17 17 17 18 17 17 19 21 21 19 19 19 18 17 19 19 19 19 18 19 20 20 20 20 19 19 18 19 19 19 19 18 19 19 20 20 19 19 18 18 19 19 19 19 19 19 19 19 19 19 19 19 19 19 19 19 19 20 21 22
18 18 18 19 20 20 21 20 19 19 20 20 18 19 20 20 20 22 21 18 18 18 18 19 21 21 21 21 20 20 21 22 21 20 19 19 19 20 21 22 21 20 20 20 20 21 21 22 22 22 21 21 22 22 22 22 22 21 21 21 21 21 22
23 23 23 23 23 23 24 23 21 21 21 22 23 24 24 23 23 23 22 19 19 19 19 19 20 21 21 21 20 21 22 22 21 20 20 20 20 21 22 23 24 23 23 23 23 24 23 24 24 24 25 25 25 25 25 25 24 24 24 24 24 24 24
28 27 27 27 26 26 26 26 26 25 25 26 28 28 27 26 24 24 23 22 22 23 23 22 22 23 22 22 22 22 23 23 23 23 23 22 22 23 24 25 25 25 24 25 26 27 28 27 26 26 27 28 28 29 29 28 28 28 28 27 27 27 27
31 31 30 30 30 30 30 29 29 30 29 28 29 30 30 28 26 25 24 23 23 25 25 26 27 27 26 26 26 27 28 29 30 30 29 29 29 30 30 29 28 27 27 28 29 29 30 31 30 29 29 29 30 31 32 33 33 32 32 31 31 31 31
34 35 35 34 34 34 33 33 32 32 31 31 30 30 31 30 28 28 26 25 25 27 27 29 29 29 30 30 31 32 34 35 35 35 34 33 33 34 34 34 32 31 31 33 34 34 34 34 34 34 34 33 32 33 34 35 35 36 36 36 35 36 36
39 39 39 38 38 37 36 36 35 34 34 34 33 32 33 33 32 31 30 29 29 30 31 32 33 34 35 35 35 35 36 37 37 36 35 35 34 34 34 34 35 35 35 36 37 38 39 38 38 38 37 37 36 36 37 37 38 38 38 38 38 39 40
43 42 42 41 41 40 39 38 38 37 36 35 35 35 36 36 34 33 32 32 33 33 34 35 37 37 37 36 36 36 36 36 35 34 33 33 33 33 33 33 34 35 36 37 37 37 38 40 40 40 40 40 40 40 40 40 41 41 40 40 40 41 43
43 43 43 42 41 40 40 39 39 39 38 38 38 37 37 38 37 37 37 36 36 36 36 37 38 38 37 36 35 35 35 34 34 33 33 33 32 32 32 32 33 34 35 36 37 38 39 40 41 42 42 43 44 44 44 44 44 44 43 43 43 43 45
42 41 41 42 42 41 41 40 39 38 38 38 39 38 38 38 40 40 39 38 37 36 36 37 37 37 36 36 35 35 35 34 34 34 34 33 33 33 33 33 34 35 36 37 38 39 40 42 43 43 43 44 45 46 46 47 47 47 47 47 47 48 48
40 39 38 38 39 40 40 39 39 39 38 39 40 40 40 42 43 42 40 38 36 35 36 36 37 37 37 37 38 38 37 36 36 36 36 35 35 34 34 34 35 37 38 40 40 41 42 42 43 43 44 44 45 46 46 47 48 48 48 49 50 51 52
40 38 36 35 35 36 36 37 38 40 40 41 43 44 44 45 45 44 41 39 36 35 36 37 38 39 39 40 40 40 40 39 38 38 38 38 37 37 36 36 37 38 39 40 41 42 43 43 44 44 44 45 45 46 47 47 48 48 49 50 51 52 53
42 40 36 34 35 35 35 36 37 38 39 41 43 44 43 43 43 42 41 39 37 37 37 38 39 40 41 41 41 41 41 40 39 40 40 40 40 40 39 39 39 40 40 41 42 42 43 44 44 45 45 46 46 47 47 48 48 49 50 51 52 52 53
46 44 41 39 38 39 39 39 38 37 37 38 39 41 42 42 42 41 41 40 39 40 41 42 43 43 44 44 43 43 42 42 41 41 41 42 42 42 42 42 42 42 42 42 43 43 43 44 45 45 46 47 47 47 48 49 49 50 50 51 52 53 53
50 48 48 46 44 43 42 42 42 42 40 39 39 40 41 42 42 42 42 43 44 44 45 45 46 46 46 45 44 44 44 43 43 42 42 42 42 43 44 45 45 45 44 43 43 44 44 45 45 46 46 47 47 48 48 49 49 50 50 51 52 52 53
55 53 53 53 51 49 48 47 47 47 47 47 46 46 46 46 46 47 48 49 49 49 48 47 46 46 45 45 44 44 44 44 43 42 42 41 43 45 47 48 48 47 46 45 44 44 44 45 46 46 47 47 47 48 48 48 49 50 50 51 51 52 52
58 57 58 58 59 59 58 55 53 52 52 52 52 51 50 50 50 50 51 51 51 50 50 49 47 46 45 45 44 44 45 44 43 42 43 45 47 48 49 49 48 47 46 45 44 44 45 45 45 46 47 47 47 47 48 48 49 49 50 50 51 51 51
58 57 57 59 60 61 61 60 58 57 57 56 55 53 51 49 49 49 47 46 45 46 47 47 46 45 44 44 44 45 45 45 44 45 48 50 50 49 47 46 46 45 45 45 45 45 45 45 45 46 46 46 46 47 47 48 48 49 49 50 50 50 50
58 57 56 56 57 57 57 57 57 57 57 56 55 53 51 50 49 48 46 43 43 45 46 47 47 45 44 44 45 46 46 46 47 51 54 52 49 47 46 45 44 44 45 45 45 45 45 45 45 45 45 45 46 46 47 47 48 48 49 49 49 49 50
60 59 58 56 55 54 53 52 52 54 55 54 52 50 49 48 49 48 47 46 46 47 48 49 49 48 47 47 47 47 48 50 54 57 55 51 49 48 46 45 44 44 45 45 45 45 45 45 45 45 45 46 46 46 46 46 47 47 47 48 48 49 50

ECMWFFLT1_500_spd_036.txt.gz
Wind_Speed
15 16 16 15 15 15 15 14 14 16 17 17 16 16 16 16 17 18 18 19 18 15 14 14 15 17 18 19 20 20 20 20 20 20 21 21 21 21 21 21 20 20 19 19 18 18 17 17 16 17 18 18 18 18 18 19 19 19 19 19 20 20 19
16 17 17 16 16 16 16 16 15 16 18 19 19 19 19 20 21 21 19 19 19 17 15 15 16 16 17 18 19 20 21 21 21 22 21 21 21 21 21 20 20 20 20 20 19 18 19 19 18 18 18 18 18 18 18 20 21 21 20 20 21 21 21
17 17 17 17 16 16 17 17 16 16 17 19 20 21 21 22 23 22 20 19 19 18 16 15 15 16 17 18 18 20 21 21 22 22 22 22 21 21 20 20 20 20 20 20 20 19 20 20 19 18 18 18 18 18 19 20 21 22 22 22 22 22 22
17 17 17 17 17 17 18 18 18 18 18 19 20 21 21 22 22 22 20 19 18 17 16 15 15 15 16 16 17 18 20 21 22 22 22 22 21 21 21 20 20 20 20 20 20 20 20 20 20 19 19 18 19 19 19 19 19 20 22 23 24 23 23
17 17 18 18 19 20 21 20 20 20 21 21 21 20 20 21 21 20 19 18 17 16 15 14 14 14 15 15 16 18 19 20 21 22 22 22 22 21 21 21 21 21 21 21 20 19 19 20 20 20 20 20 20 20 20 20 20 21 22 23 24 24 24
19 18 19 20 21 22 23 23 22 22 22 21 20 19 20 20 18 17 17 17 16 15 14 14 14 14 14 15 16 17 18 19 21 21 22 22 22 21 21 21 21 21 21 21 20 20 19 20 20 20 20 20 20 20 21 22 22 22 22 23 23 24 24
20 20 20 20 20 22 22 22 21 20 20 19 18 18 18 18 16 15 15 15 14 14 13 13 13 14 14 14 15 16 18 19 20 20 21 21 20 20 20 20 20 19 19 20 20 20 19 19 19 20 20 21 21 21 21 21 21 21 22 23 23 24 25
21 20 19 19 20 22 23 22 21 21 20 20 18 17 17 17 15 14 14 13 13 12 12 12 13 13 14 14 15 16 17 18 19 20 20 19 19 19 18 18 18 17 17 18 18 18 18 18 18 18 18 19 20 20 20 20 20 20 21 22 22 23 24
19 16 16 17 20 23 24 23 22 23 23 22 19 17 16 16 14 13 13 13 12 12 11 11 12 12 13 14 14 15 16 17 18 18 19 19 18 18 17 17 16 16 16 16 16 16 16 16 16 16 16 17 18 19 19 19 19 19 19 20 20 21 23
12 11 12 15 18 21 23 22 22 23 22 20 19 17 15 15 15 14 14 14 14 13 12 12 11 12 12 13 14 15 16 16 17 17 18 18 18 17 16 16 15 15 15 15 15 15 15 15 15 15 15 15 16 17 17 18 18 18 18 18 18 19 20
9 10 13 15 17 18 19 20 21 21 19 18 19 18 17 17 17 16 16 16 16 15 14 13 13 13 13 14 14 15 16 17 17 17 18 18 18 17 17 16 15 15 15 15 15 15 15 15 15 15 15 14 14 15 15 15 16 16 17 17 17 17 18
11 13 14 16 17 16 16 16 17 18 19 18 18 18 18 18 18 17 17 18 18 17 16 15 15 15 15 15 16 16 17 17 17 17 17 17 18 18 17 17 16 15 14 14 14 14 15 15 16 15 15 15 14 14 14 14 15 15 16 16 16 16 16
13 13 15 16 16 15 14 14 15 16 17 17 16 16 17 17 17 18 18 18 17 17 16 16 15 15 16 16 17 17 18 18 18 18 17 16 17 17 18 17 17 15 14 14 13 13 14 14 15 16 16 16 15 15 15 15 15 15 15 16 16 16 16
13 14 14 14 14 14 13 13 14 14 14 15 16 16 17 17 17 17 16 16 16 17 17 16 16 16 16 16 17 17 18 18 18 18 18 17 16 16 16 17 17 17 16 15 14 14 14 14 14 15 15 15 16 16 16 16 16 16 16 16 16 16 17
15 15 15 14 14 14 14 14 14 14 15 16 17 18 18 17 17 16 16 17 18 18 19 18 18 18 18 18 18 18 18 18 18 17 17 17 17 16 16 16 16 17 17 16 15 14 14 14 14 14 14 15 16 16 17 17 17 17 17 17 17 17 17
17 16 16 16 14 14 14 15 15 14 15 15 16 18 19 19 18 17 17 17 19 20 20 20 21 21 22 21 20 19 18 18 18 18 17 17 17 17 17 16 16 17 17 17 17 16 16 15 15 15 15 15 16 17 17 18 18 18 18 18 18 18 18
18 18 17 16 15 15 15 16 15 14 14 15 16 17 19 20 20 19 18 18 19 20 20 20 21 22 23 23 22 21 20 21 21 20 19 18 18 19 19 19 18 18 18 19 19 19 18 18 18 17 18 18 18 18 19 19 19 19 19 19 20 20 20
19 18 17 16 16 16 16 17 17 16 16 16 16 17 18 20 21 21 19 19 19 20 20 20 22 23 23 23 23 23 22 22 23 22 22 21 21 21 21 21 20 20 20 20 20 21 21 20 20 20 20 21 21 22 22 21 21 21 21 21 22 22 22
20 19 19 18 17 16 17 18 18 19 19 19 19 18 18 19 21 21 20 19 20 22 23 23 23 24 24 24 25 25 24 24 24 24 24 24 23 22 22 21 21 20 20 20 21 22 22 22 23 23 24 24 24 25 25 25 25 24 24 24 24 24 24
21 21 21 20 20 19 19 20 21 22 22 22 22 21 20 21 22 23 24 25 26 27 27 26 23 23 24 24 24 26 27 27 27 27 26 26 24 22 22 21 20 20 21 21 22 22 22 23 22 23 25 26 27 28 28 28 28 28 28 28 27 27 27
22 23 23 24 24 24 24 24 24 25 25 25 25 24 24 24 25 27 28 30 31 30 29 28 27 26 27 26 26 26 28 29 29 28 27 26 25 23 22 22 21 22 23 23 24 24 25 25 24 23 25 25 27 30 31 31 31 32 31 31 31 31 31
24 25 26 26 27 28 28 28 28 28 28 28 28 28 28 29 30 31 31 32 33 33 32 32 31 30 30 30 29 28 29 29 29 28 28 27 27 27 26 27 28 29 29 29 30 30 30 31 30 30 31 30 30 31 32 32 33 34 34 34 34 34 34
29 29 30 30 30 31 31 32 32 32 32 33 32 32 32 33 33 34 34 35 35 35 35 34 33 32 30 30 31 31 31 32 31 32 32 31 31 32 32 34 35 36 36 35 35 35 35 35 36 36 37 37 36 35 35 35 36 36 37 37 37 37 38
34 34 35 35 35 35 35 35 36 36 37 37 37 38 38 38 38 38 38 38 38 38 37 37 36 33 31 31 33 34 34 34 34 35 35 35 36 36 37 38 39 40 39 38 38 38 38 39 39 39 41 41 41 40 40 41 42 42 42 41 40 40 41
39 39 39 40 40 40 39 39 40 40 40 41 42 42 42 43 42 41 40 40 40 39 39 39 38 36 35 34 35 35 36 36 37 37 38 39 40 41 42 42 42 41 40 39 38 38 39 40 39 40 41 42 43 43 43 44 45 45 45 45 44 43 43
43 43 43 43 43 43 43 43 42 41 41 41 42 41 41 41 41 40 41 41 40 39 39 40 40 39 37 36 36 37 38 39 40 41 42 43 43 44 44 43 42 40 39 38 37 37 38 38 39 39 40 41 42 43 44 45 46 46 47 47 47 47 46
46 46 46 45 44 44 43 42 40 39 40 41 42 42 42 41 41 41 43 44 42 41 42 42 41 40 39 38 38 39 40 41 42 43 44 44 43 43 41 40 40 39 39 38 38 38 38 38 38 38 39 40 41 43 44 45 46 46 47 47 48 48 48
49 49 47 46 44 41 40 40 40 40 40 41 41 42 42 43 43 42 42 42 41 42 43 43 41 41 41 40 41 42 43 44 45 46 46 45 43 41 40 39 39 39 39 39 39 39 39 39 38 38 39 40 41 42 44 45 46 46 47 47 48 48 49
47 46 45 44 42 41 42 42 42 42 41 41 41 42 43 45 44 41 37 36 36 39 42 42 42 42 42 43 44 45 46 47 47 47 46 44 42 41 40 40 39 39 39 39 40 40 40 40 40 40 41 41 41 42 43 44 45 46 46 47 47 48 48
44 44 44 44 44 44 44 44 43 42 42 43 43 44 45 46 45 43 40 38 38 39 41 42 43 45 46 46 47 47 47 47 47 46 45 43 42 41 41 40 39 38 38 39 40 41 42 43 44 44 44 44 43 43 43 44 45 45 46 47 47 48 48
46 46 45 46 45 45 44 44 43 43 44 45 45 45 45 46 45 46 47 48 48 48 48 48 48 49 49 49 49 48 47 46 46 45 44 43 43 43 42 41 41 41 41 41 42 43 44 44 45 46 46 47 47 46 45 44 45 45 46 47 47 48 49
52 51 50 49 47 46 45 44 45 45 47 48 49 47 46 47 46 46 48 50 50 50 50 50 49 49 49 48 48 47 46 45 44 44 44 45 46 46 46 46 46 45 44 44 44 44 44 44 45 46 47 48 48 47 46 45 45 45 46 47 47 48 49
59 58 57 56 54 53 52 51 52 53 54 55 54 52 49 49 49 47 47 47 47 46 47 48 49 48 48 47 46 46 46 46 46 47 47 48 49 50 50 50 49 47 46 46 46 45 44 45 47 48 48 48 47 46 46 45 45 46 46 47 48 49 49
62 62 62 62 62 61 61 61 61 61 60 60 58 56 54 53 52 49 47 46 46 46 47 48 48 48 48 47 47 48 48 49 51 52 53 53 52 51 50 49 48 47 46 46 45 44 45 47 48 48 48 47 47 46 46 46 46 47 48 48 49 49 50
64 64 64 64 63 63 63 62 62 61 60 60 60 59 58 58 58 56 53 52 51 51 51 51 51 52 52 52 52 53 53 53 54 54 55 54 53 51 49 48 47 46 46 45 45 46 49 50 49 48 48 47 47 47 47 47 47 48 49 49 50 50 51
66 65 65 64 64 63 63 62 60 59 58 57 58 58 58 59 61 62 61 60 58 56 56 56 56 57 57 57 57 57 56 54 53 52 51 51 49 48 47 46 46 45 45 46 47 50 52 51 49 48 48 48 48 48 48 48 48 49 50 50 50 50 51
68 67 67 66 65 64 63 62 60 58 57 57 56 56 57 57 58 61 62 62 60 59 58 58 58 58 59 59 59 57 55 53 51 49 49 48 47 46 46 46 46 46 47 47 49 53 54 52 50 49 49 49 49 49 49 49 49 49 50 50 50 50 51

ECMWFFLT1_500_spd_039.txt.gz
Wind_Speed
13 13 13 14 14 14 15 15 15 14 14 13 14 14 15 15 15 14 14 14 15 15 15 15 14 15 15 15 14 14 14 14 15 15 15 15 16 16 17 18 19 19 19 19 19 18 18 19 19 18 18 18 17 17 19 20 20 19 20 21 21 20 20
14 14 14 15 14 15 15 15 15 15 14 14 14 14 15 16 17 17 17 17 18 18 17 17 16 16 16 16 15 14 14 14 14 15 15 15 16 17 17 17 18 18 18 19 18 18 19 20 20 20 19 18 17 18 20 22 22 22 22 23 23 22 22
15 15 15 15 15 16 16 16 16 15 15 15 15 16 16 17 17 18 18 18 18 18 17 17 17 17 16 16 16 15 14 14 14 14 14 14 15 16 17 17 17 17 17 17 18 19 20 19 19 19 18 17 18 20 22 23 24 24 24 24 24 24 23
16 15 15 15 16 17 17 17 17 17 17 17 17 17 18 19 19 19 19 19 18 17 16 16 16 16 16 15 15 15 14 14 14 14 13 13 13 15 16 16 16 17 17 17 18 18 19 19 18 19 19 20 22 22 23 24 25 25 25 25 25 25 24
16 15 15 16 17 18 19 19 19 19 19 18 17 17 18 18 19 19 19 19 19 17 15 15 14 14 14 14 14 13 13 13 13 13 13 13 13 14 15 16 16 17 17 17 18 18 18 19 19 20 21 22 22 23 24 25 25 26 26 26 25 25 25
15 15 16 17 18 19 20 21 21 21 21 19 17 16 15 15 16 16 17 18 18 16 15 14 14 14 13 13 12 12 12 12 11 11 12 12 13 13 14 15 15 16 17 17 18 19 19 19 19 20 21 22 22 23 24 24 25 25 26 26 26 26 25
15 16 18 19 19 20 22 22 21 21 20 19 17 15 14 15 16 16 16 16 16 15 14 14 14 13 13 13 12 11 11 11 11 11 11 11 12 13 14 14 15 15 16 17 17 19 19 19 19 20 20 21 21 22 23 24 24 24 24 24 25 25 25
18 19 21 22 21 21 19 17 15 16 18 18 17 17 17 17 17 16 15 15 15 15 14 14 14 14 13 13 12 12 11 11 11 11 11 11 12 12 13 14 14 15 16 16 17 18 19 19 19 19 19 19 20 21 22 22 22 23 23 23 23 23 23
19 21 23 24 22 18 15 12 12 14 16 17 16 18 18 18 16 15 14 14 14 14 14 14 14 14 14 14 13 13 12 12 12 12 11 12 12 12 13 13 14 15 15 16 17 17 18 18 18 18 18 18 19 19 20 21 21 21 21 21 22 22 22
22 22 23 23 19 15 12 12 13 14 16 17 17 17 17 15 14 14 13 13 13 14 15 16 16 16 16 16 15 15 14 14 14 13 13 13 13 13 13 14 14 15 15 16 17 17 17 17 17 18 18 18 18 18 19 19 20 20 20 20 20 20 20
23 21 20 17 14 12 12 13 14 14 16 18 17 16 15 14 14 14 14 13 14 15 16 17 18 18 18 18 18 17 16 15 15 15 15 14 14 14 14 14 14 15 15 15 16 17 17 17 17 18 17 17 18 18 18 19 19 19 19 19 19 19 20
20 19 18 15 13 12 13 13 14 16 17 16 15 14 13 12 13 14 14 14 15 16 17 18 19 19 19 19 19 18 18 17 16 16 16 16 16 16 15 15 15 14 15 15 16 16 17 17 17 17 17 18 18 18 18 19 19 19 19 19 19 19 19
19 19 19 16 14 14 14 15 16 17 16 15 14 13 12 11 11 12 13 15 16 17 18 19 19 19 20 19 19 19 18 18 17 17 16 16 16 16 16 16 16 16 15 15 15 16 17 17 17 18 18 18 18 19 19 19 19 19 19 19 20 19 20
20 21 20 17 16 16 17 18 18 17 16 14 13 12 12 11 11 11 13 14 16 17 18 18 19 19 19 19 19 18 18 18 18 18 18 17 17 17 17 17 17 17 17 16 15 15 15 16 17 18 18 18 19 19 19 19 19 19 19 20 20 20 20
21 21 21 19 18 19 19 19 19 17 15 14 13 13 13 13 13 13 13 14 15 16 17 18 19 20 20 20 20 20 20 20 20 20 19 19 18 18 18 17 17 17 17 17 16 15 15 15 16 17 17 18 18 18 18 18 18 19 19 19 20 21 21
22 21 20 19 19 20 20 20 19 17 16 16 15 15 15 15 14 14 14 14 15 16 17 18 20 21 21 21 22 22 22 22 22 21 21 20 19 19 19 19 18 17 17 17 17 17 17 16 16 16 17 18 18 18 19 19 19 19 19 20 20 20 21
22 20 19 19 19 20 20 20 19 18 18 17 17 17 17 16 16 16 15 15 15 16 17 18 19 21 21 21 21 21 21 22 22 22 22 22 21 21 21 20 20 19 18 18 19 19 19 19 18 18 18 18 19 19 19 20 20 20 21 21 21 22 22
20 19 19 19 19 19 20 20 20 20 19 19 19 19 19 19 18 18 17 16 16 16 16 16 18 19 21 21 21 22 23 24 24 23 24 24 24 24 24 23 23 22 21 21 21 22 22 22 21 21 20 20 20 21 21 22 22 23 23 23 23 24 24
20 20 20 20 19 20 20 21 21 21 21 21 21 21 21 21 21 20 19 19 18 17 16 17 18 19 21 22 24 25 26 26 26 25 25 25 25 26 26 26 25 24 24 23 23 23 23 22 22 22 22 22 21 22 22 23 23 24 24 25 25 26 26
22 22 22 22 22 22 22 21 21 21 22 22 22 23 23 23 23 23 23 22 22 21 20 20 21 22 23 25 26 27 28 28 28 27 27 27 28 28 28 28 28 28 27 26 25 24 23 22 22 22 23 23 22 22 23 23 23 23 25 26 27 28 28
24 24 24 24 24 24 24 23 22 23 24 24 25 26 26 26 26 26 27 27 27 27 26 26 27 27 27 27 27 27 29 30 30 30 29 29 29 30 31 31 31 30 30 29 28 26 25 24 24 23 24 25 26 26 27 28 28 29 30 32 33 33 32
23 23 23 23 24 25 25 25 25 26 27 28 29 29 29 30 30 30 30 31 31 31 31 32 32 31 31 31 29 29 30 31 33 33 33 33 33 33 33 33 33 32 32 31 29 28 27 26 26 27 28 29 31 32 32 34 35 36 37 38 38 38 37
23 23 23 24 25 26 27 28 28 28 29 30 32 34 33 32 31 31 32 32 33 34 35 37 36 35 35 34 33 32 32 33 35 35 36 36 35 33 33 33 34 34 33 33 32 31 31 32 32 33 34 34 35 36 37 38 39 40 41 42 42 42 41
27 27 27 28 29 30 31 31 31 31 32 34 36 36 33 30 30 31 32 32 32 33 35 36 36 35 35 36 36 36 35 36 38 38 39 39 38 36 36 35 35 36 37 36 36 36 36 36 37 38 38 38 38 38 39 40 41 42 43 44 44 45 45
32 32 32 33 33 33 34 35 35 35 36 38 38 36 34 34 35 36 36 36 35 34 34 36 36 37 37 38 39 39 38 38 38 36 35 35 36 37 37 36 36 38 39 38 38 39 39 40 41 41 41 41 39 38 38 40 41 42 43 44 45 45 46
35 36 36 36 36 36 37 37 37 38 39 40 40 40 41 42 43 42 42 41 40 39 39 40 40 40 40 40 40 41 41 40 40 39 34 32 33 36 37 37 37 38 39 39 40 41 42 43 43 42 40 40 39 39 39 40 41 42 43 43 44 44 44
38 38 39 39 39 40 40 40 40 41 42 43 44 45 46 46 46 46 45 43 41 40 39 39 40 40 40 41 43 45 44 42 42 42 38 36 37 39 39 39 39 40 41 41 42 42 43 43 43 41 40 39 39 39 40 41 42 43 43 43 43 44 44
41 41 42 42 42 43 43 43 44 44 45 46 48 49 49 49 47 46 44 43 41 39 38 38 38 40 42 44 45 46 45 43 43 43 42 43 45 46 45 44 44 45 45 45 45 44 43 42 42 41 40 39 39 40 41 42 43 44 44 44 44 44 44
44 44 45 45 45 45 45 45 44 44 44 45 47 48 48 47 46 44 43 43 42 40 39 39 39 40 42 44 45 45 43 42 45 47 47 48 49 50 49 48 48 49 49 49 48 47 44 43 42 41 41 41 41 42 42 43 44 44 45 46 46 47 47
46 46 47 47 47 47 46 45 44 43 42 42 43 43 43 43 43 44 45 45 44 42 42 42 41 41 42 42 41 42 42 43 46 49 50 49 49 49 48 49 49 50 50 50 48 46 45 43 43 43 43 43 44 44 44 44 45 46 46 47 48 48 49
49 49 49 49 49 49 47 46 46 46 45 45 44 44 44 44 45 46 47 47 46 46 45 45 43 42 43 43 41 38 38 40 43 46 47 48 48 48 49 50 50 49 48 47 46 44 43 43 44 45 46 46 47 47 47 47 48 48 47 47 47 47 48
53 53 52 52 52 51 50 50 50 49 49 50 50 50 51 51 50 50 50 50 49 49 48 48 47 45 45 47 48 45 43 44 45 47 48 49 50 51 52 51 49 47 45 44 43 42 43 44 46 48 50 50 51 51 50 49 49 48 46 46 47 47 47
57 57 56 55 55 54 53 53 53 52 52 53 53 54 55 55 53 52 52 52 52 51 52 52 51 49 47 48 51 54 55 55 54 54 53 53 52 51 50 48 47 45 44 43 43 44 46 48 49 51 53 53 53 53 52 49 47 46 46 47 47 47 47
60 60 59 59 58 57 57 57 57 57 56 56 56 57 58 58 57 55 54 54 54 54 55 56 57 55 52 51 52 55 57 58 57 55 54 54 53 51 48 46 46 45 44 45 46 48 50 51 52 54 54 53 53 52 50 47 45 45 47 49 49 48 48
62 62 62 62 62 62 61 62 61 61 60 59 59 59 59 59 59 59 59 59 60 60 60 61 61 59 56 54 54 56 58 58 56 53 53 54 56 53 49 48 48 47 47 48 50 52 53 55 56 56 54 53 51 49 47 45 45 46 49 50 49 49 49
65 65 65 65 65 65 65 64 64 64 64 63 62 61 60 60 60 60 60 60 60 60 60 60 60 59 58 57 57 58 59 58 56 53 52 53 54 52 50 50 51 51 52 53 54 55 57 57 58 56 53 50 49 47 46 46 47 48 50 51 50 50 50
68 68 68 67 67 67 66 66 66 66 65 65 64 62 61 58 56 57 57 57 57 58 57 57 57 56 56 57 58 59 61 60 60 58 57 57 57 55 55 56 56 56 56 57 56 57 57 58 57 53 50 48 47 47 47 48 49 51 53 53 52 51 51

ECMWFFLT1_500_spd_042.txt.gz
Wind_Speed
17 16 16 16 16 16 15 14 13 11 11 10 11 11 10 11 10 10 10 10 11 12 13 14 14 14 13 13 13 14 14 14 13 12 10 9 10 9 8 8 7 8 9 11 12 13 13 13 14 15 17 19 19 18 18 16 15 15 16 16 17 18 18
15 14 15 15 16 15 15 14 13 11 10 10 11 12 12 12 12 12 12 12 12 12 13 14 14 15 14 13 12 13 14 14 13 12 10 9 9 9 9 8 7 7 8 10 12 13 13 13 14 16 17 18 19 18 17 16 15 17 18 18 18 19 19
13 14 14 15 15 15 15 14 13 11 11 11 11 12 13 13 13 14 14 14 14 14 14 14 14 14 14 13 12 12 12 13 12 11 11 10 9 9 9 8 8 8 8 9 10 11 11 12 14 15 16 17 17 16 16 16 17 19 19 19 19 20 20
13 14 14 14 15 15 14 14 13 12 12 12 12 13 13 13 12 12 12 12 13 13 14 15 14 14 14 14 13 13 12 12 12 12 12 12 11 10 10 9 9 9 9 10 10 11 11 11 13 14 15 15 15 16 17 18 19 19 19 20 20 20 21
15 14 15 14 14 15 14 14 13 13 13 14 13 13 12 11 10 9 10 11 12 13 13 14 14 13 13 13 13 13 13 13 13 13 13 13 13 12 11 11 11 10 10 11 11 12 12 12 13 14 14 15 16 16 16 17 18 18 20 21 21 21 21
15 14 14 14 14 15 15 14 13 13 14 13 11 11 10 10 9 9 10 12 13 13 13 12 12 12 12 12 12 13 14 14 14 14 14 14 14 14 13 12 12 12 11 11 12 13 13 13 15 15 15 16 16 16 15 16 17 18 19 21 21 21 20
15 15 14 14 14 15 16 15 14 13 10 8 8 8 8 9 9 11 12 13 13 12 12 11 11 11 11 11 12 12 13 14 14 15 15 15 15 14 14 13 12 12 12 12 12 13 14 14 15 16 16 16 16 16 15 15 17 18 18 19 20 20 20
16 16 16 16 16 17 17 17 15 11 8 7 8 8 8 8 9 11 12 12 11 11 11 11 10 10 10 10 11 11 12 13 13 14 15 15 15 14 14 13 12 12 12 12 12 13 13 14 15 16 17 16 17 16 14 15 17 17 18 18 18 19 19
19 19 18 18 18 18 18 18 15 11 9 8 9 8 7 7 8 9 9 9 9 10 10 10 10 10 10 11 11 11 11 12 13 14 15 15 15 15 14 14 13 13 13 13 13 13 14 15 16 16 17 17 18 17 15 15 16 17 17 17 17 18 18
20 20 21 21 21 22 22 20 15 12 10 9 9 8 8 7 7 8 8 9 9 10 11 11 11 12 12 12 13 13 13 13 14 15 15 16 16 16 15 15 15 15 14 14 14 14 14 15 16 17 17 18 18 18 16 16 17 16 17 17 17 17 17
17 19 22 25 26 26 24 20 15 13 11 10 10 9 9 8 8 8 9 9 10 11 12 13 13 13 13 14 14 15 15 15 16 16 17 17 17 17 17 17 17 16 16 16 16 15 15 15 16 17 18 18 18 18 17 18 18 17 17 17 17 17 17
19 22 25 27 27 26 22 18 15 14 12 11 11 11 11 9 9 9 9 10 11 12 13 14 14 14 15 15 15 16 16 16 17 17 17 18 18 18 18 18 18 18 18 18 17 17 16 16 16 17 18 18 18 18 18 18 18 18 18 17 17 17 18
23 25 27 26 24 22 20 18 17 15 13 13 13 13 12 12 10 10 10 11 12 13 14 15 16 16 16 16 16 16 16 16 16 16 17 17 17 18 18 19 20 20 20 20 20 19 18 17 17 17 17 18 18 17 17 18 18 18 18 18 18 18 18
26 26 25 22 21 21 21 20 18 15 14 14 14 14 14 14 12 11 11 11 12 14 15 16 17 16 15 14 14 14 15 16 16 17 17 18 18 19 20 20 21 21 21 21 21 20 19 18 18 17 17 17 17 16 16 17 17 17 17 17 17 17 17
27 24 21 20 20 22 22 21 19 16 16 16 16 16 16 15 13 13 12 13 14 15 16 16 16 15 14 13 12 13 15 16 17 17 18 19 19 20 20 20 20 21 21 20 20 20 19 18 17 17 17 17 17 16 15 16 16 16 16 16 17 17 17
24 22 21 21 22 23 24 22 20 18 18 18 18 18 17 16 15 15 14 15 15 15 15 15 15 15 14 13 13 13 14 15 16 16 17 18 19 19 20 20 21 21 20 20 20 19 19 18 18 18 18 18 17 17 17 17 17 17 17 16 17 17 17
21 21 22 22 23 24 25 24 22 20 20 20 19 19 18 18 17 16 16 15 15 15 15 15 15 16 15 15 14 13 14 14 15 15 17 18 19 20 20 21 22 22 22 22 21 21 21 20 20 20 20 20 20 20 19 19 18 18 18 17 17 18 19
19 20 22 23 25 26 25 24 23 22 21 21 20 19 19 19 19 18 17 17 16 15 14 14 15 16 16 16 15 14 14 14 16 17 19 20 21 21 22 22 23 24 24 24 23 24 24 23 23 23 22 22 23 23 22 21 20 20 19 19 19 20 20
17 19 21 24 25 25 26 25 24 22 22 22 21 21 21 21 21 20 20 19 18 17 16 16 16 16 16 16 15 15 15 17 19 20 21 22 22 22 23 24 25 26 26 26 26 26 26 25 26 26 25 24 24 24 23 22 21 21 20 20 20 21 22
16 17 20 22 22 21 22 24 24 22 21 21 21 21 21 21 21 21 21 20 20 20 21 21 20 19 18 18 18 18 19 21 23 23 24 24 24 24 25 25 26 27 28 29 28 28 28 28 28 27 27 26 25 24 24 23 22 23 23 23 23 24 25
18 19 21 22 21 20 19 19 21 23 23 22 22 22 22 21 21 22 21 22 22 24 26 27 25 22 20 22 23 24 24 25 26 27 28 29 27 26 27 28 27 28 30 31 31 31 31 30 30 29 28 28 27 26 26 25 25 25 26 28 30 31 32
20 20 21 22 22 22 20 18 19 21 22 23 23 24 23 23 24 25 25 25 26 28 31 31 29 25 24 25 26 27 27 28 28 29 30 30 29 28 30 30 30 30 31 32 33 34 33 32 31 31 30 30 30 29 28 28 28 29 30 33 35 37 39
18 18 19 21 22 22 22 20 19 20 21 22 23 24 24 25 27 28 28 29 29 31 33 33 30 29 29 29 28 27 27 27 28 29 30 31 31 31 31 31 31 31 32 34 35 35 35 33 32 31 30 30 30 31 31 31 32 34 35 37 39 40 41
20 19 19 21 22 23 23 23 22 23 24 24 25 26 27 28 30 31 32 31 31 31 32 32 32 32 32 32 33 32 30 30 32 33 34 36 35 34 34 34 33 34 36 38 36 33 32 32 31 31 31 31 32 33 34 35 36 37 39 40 41 41 42
23 23 23 24 25 25 26 26 27 27 28 29 29 30 31 32 33 35 35 35 33 33 33 35 37 37 37 37 37 37 36 36 38 39 39 39 37 36 36 36 36 36 36 36 35 33 32 31 30 30 31 32 33 34 35 37 38 40 41 42 43 43 42
26 26 27 28 28 29 29 30 31 31 32 32 33 33 35 36 37 38 39 38 37 37 38 39 40 41 42 42 40 39 37 36 37 38 39 39 38 38 38 38 38 38 37 37 36 34 31 29 28 29 31 33 35 36 38 40 41 42 43 43 43 42 41
29 30 31 31 32 32 32 33 33 34 34 35 35 36 38 39 40 41 42 42 41 40 40 40 41 42 44 44 43 41 38 35 35 36 37 38 39 40 41 41 39 39 40 41 38 34 31 31 31 33 35 37 38 40 40 41 41 41 42 42 41 40 40
34 35 35 35 35 35 35 36 37 38 38 38 38 39 40 41 43 43 44 45 44 42 41 41 43 44 44 44 43 41 38 36 37 38 39 40 41 41 42 41 41 40 40 41 41 38 38 39 39 38 39 40 40 40 40 40 39 39 40 40 39 38 39
37 37 38 38 38 39 39 39 40 41 42 42 42 42 42 43 43 44 45 45 44 42 42 43 44 44 43 42 41 39 38 38 39 40 41 42 42 40 40 41 42 41 39 41 44 45 46 46 44 42 42 41 41 41 41 41 41 41 41 39 39 39 41
40 41 41 42 42 43 43 43 43 44 44 44 43 43 44 45 45 45 45 45 44 44 43 43 43 42 41 40 40 40 39 40 42 44 44 44 42 41 41 40 41 42 42 44 47 49 50 49 46 44 44 44 45 44 44 44 43 42 41 40 40 42 44
44 44 45 46 47 47 47 46 45 44 44 45 46 48 49 49 49 49 48 48 47 46 45 44 43 42 42 42 42 43 43 44 46 48 48 47 46 45 45 44 42 42 44 45 46 47 48 48 47 47 48 48 47 45 44 43 42 41 41 42 43 45 46
47 47 47 47 47 48 47 45 45 46 47 50 51 53 53 53 53 53 53 52 51 49 48 47 47 47 48 48 49 49 49 48 48 49 50 50 49 49 48 47 46 45 46 46 47 48 49 50 50 51 50 49 47 45 42 42 42 42 44 46 47 49 50
45 46 46 46 46 46 47 49 51 54 55 55 55 55 55 55 55 55 55 55 54 52 51 50 50 50 51 52 53 52 51 50 50 51 52 53 52 51 49 48 49 50 51 52 53 54 54 53 53 52 50 48 47 45 43 42 44 46 47 49 51 52 53
43 45 48 50 52 53 55 57 58 58 59 58 57 57 58 58 58 58 58 58 56 55 54 53 53 53 53 54 54 54 53 52 52 53 54 54 54 54 52 51 52 53 54 55 56 56 55 53 53 52 51 49 47 46 45 45 47 49 51 53 54 55 54
52 54 56 57 58 59 60 60 60 60 61 60 60 60 60 60 60 61 62 62 60 58 57 56 55 56 56 55 55 55 55 55 56 55 55 56 56 56 56 56 55 55 55 56 55 55 54 53 52 52 52 50 49 48 48 50 52 53 54 56 57 57 55
60 60 60 59 60 60 60 61 62 62 62 63 63 63 63 63 63 63 65 65 64 63 61 59 58 58 57 56 56 56 56 57 58 58 58 58 57 56 56 58 57 56 56 57 57 57 55 52 50 50 50 49 49 50 51 53 56 57 58 58 58 56 53
61 61 61 61 62 62 62 63 64 64 65 66 66 66 66 66 66 66 66 67 67 66 64 60 59 58 56 54 54 53 53 55 56 57 58 58 57 55 56 57 58 58 59 59 59 58 57 54 53 53 53 53 53 53 55 56 58 59 59 58 56 55 52

ECMWFFLT1_500_spd_045.txt.gz
Wind_Speed
14 15 17 19 19 18 17 15 13 11 10 9 9 8 7 7 6 6 5 5 5 5 5 7 8 9 10 11 11 10 9 8 8 8 10 11 11 11 11 11 11 12 13 13 13 13 12 13 13 14 13 12 12 11 10 10 10 9 8 8 9 10 10
11 13 16 17 18 18 17 16 13 10 8 8 8 8 8 8 7 7 7 7 6 5 5 6 7 7 9 10 10 10 10 9 9 9 10 11 11 11 12 12 12 13 14 13 13 13 12 12 12 13 13 12 12 11 10 10 9 9 9 10 11 12 11
10 11 12 14 16 17 17 15 12 9 8 8 8 8 9 9 9 8 7 6 5 4 4 4 5 6 7 8 9 9 9 9 10 10 11 12 12 12 12 12 13 14 14 13 13 12 11 11 11 12 11 11 10 9 8 8 9 9 10 12 12 12 12
15 13 12 13 16 17 16 14 13 11 9 8 8 9 11 12 11 10 8 6 4 3 3 3 3 4 5 6 7 7 7 8 8 10 11 12 12 13 13 13 13 13 13 13 12 12 11 12 12 11 10 10 9 8 8 9 10 11 12 12 12 13 13
18 16 15 15 16 17 16 15 13 11 10 9 9 11 13 13 12 11 9 7 6 5 5 4 3 3 4 4 5 5 6 6 7 8 9 11 12 13 13 13 13 13 12 12 11 12 12 11 11 10 9 8 8 8 9 10 11 12 12 12 13 13 13
15 15 15 15 15 15 16 15 13 11 10 10 11 12 12 13 12 11 10 9 7 6 6 5 4 3 3 4 4 5 6 6 6 6 7 8 9 10 10 11 11 11 10 10 10 11 11 10 10 9 8 7 7 8 10 11 12 13 12 13 13 13 13
16 16 16 16 15 14 15 15 12 10 10 11 12 11 11 11 11 10 10 9 8 7 6 5 4 4 3 3 4 4 5 5 4 4 5 6 7 7 7 8 8 8 8 8 9 10 9 9 9 8 7 6 6 7 10 11 13 12 12 13 13 13 13
17 17 17 18 17 16 16 15 12 10 10 12 12 11 12 11 10 10 9 8 7 6 6 5 5 4 4 4 4 4 4 4 4 4 5 5 6 6 7 7 7 8 8 8 9 10 10 10 10 9 8 6 5 6 9 11 12 12 12 13 13 13 13
19 17 16 18 19 18 18 17 14 9 9 12 14 13 13 12 10 10 8 7 7 6 6 6 6 5 5 5 5 5 5 6 6 6 6 7 7 7 7 8 8 8 8 9 10 10 10 11 11 11 10 8 7 7 9 10 11 11 12 13 13 13 13
20 19 17 18 20 20 19 19 17 14 11 13 16 15 14 13 11 10 9 8 7 7 7 7 7 7 7 7 7 7 7 7 8 8 8 8 8 8 8 8 8 8 9 9 10 10 11 11 12 12 11 10 9 9 9 10 11 11 12 12 13 13 13
16 17 16 17 19 19 20 20 21 20 18 17 18 18 16 15 13 12 11 9 9 8 9 9 9 9 9 9 8 8 9 9 9 9 9 9 9 9 9 9 9 9 9 10 11 11 12 12 13 13 13 12 11 11 10 10 11 11 12 12 13 13 13
13 14 14 15 17 18 19 21 22 23 21 19 19 19 18 16 14 12 11 10 10 10 10 10 10 10 10 10 9 9 9 9 9 9 9 8 8 8 9 9 10 10 11 11 12 13 13 14 14 14 14 13 13 13 12 11 10 11 12 12 12 13 13
14 15 16 17 18 19 21 22 23 22 20 19 20 20 18 17 15 13 12 12 11 11 11 12 12 11 11 10 9 9 9 9 9 9 9 9 9 9 10 10 11 11 12 12 13 13 14 14 15 14 14 13 13 13 12 11 11 11 11 11 12 12 12
19 19 20 21 22 22 22 23 23 21 19 19 19 19 18 16 14 14 13 13 13 12 13 13 13 12 11 9 9 9 8 8 9 9 10 11 11 11 11 11 11 12 12 12 13 13 13 14 15 14 13 13 12 12 12 12 11 11 10 11 11 11 11
21 22 23 23 23 23 23 22 21 19 19 19 19 18 17 15 15 14 13 13 13 13 13 14 13 12 11 10 10 10 10 10 10 10 11 12 12 11 11 12 13 13 13 13 14 13 14 15 16 15 13 13 13 13 13 13 12 12 12 11 11 11 12
19 22 23 23 22 22 21 20 19 18 19 19 18 17 16 16 15 14 13 13 13 13 13 13 12 12 11 12 12 12 12 12 12 11 12 12 11 11 12 13 14 15 15 15 15 15 16 17 18 17 16 15 15 16 15 15 14 14 15 14 13 12 13
18 19 19 20 20 19 19 18 17 17 18 19 18 17 17 17 15 14 14 13 13 12 12 11 10 10 11 11 12 13 13 13 13 13 13 13 13 14 15 16 16 17 17 17 17 17 18 19 20 19 19 19 19 18 18 18 18 18 18 17 16 15 14
19 17 16 16 17 16 16 16 16 18 19 20 20 20 19 17 16 15 15 14 14 13 11 10 9 9 10 11 11 12 13 13 13 13 13 14 15 17 18 19 19 19 18 19 20 20 20 21 22 22 22 22 22 21 20 20 20 20 20 19 18 17 16
18 17 14 14 16 16 17 18 19 20 21 22 23 22 21 20 18 17 16 15 15 14 13 12 12 13 13 13 13 13 14 14 14 15 15 16 18 20 21 21 21 21 21 22 23 23 23 23 23 23 24 25 25 24 24 23 23 23 21 20 19 18 18
17 18 16 14 14 16 18 19 20 22 22 23 24 24 24 23 21 20 18 16 15 14 15 16 16 16 16 16 17 17 17 17 17 18 20 21 22 24 24 23 22 23 24 25 25 25 26 26 26 26 26 27 27 28 27 27 27 26 25 23 22 22 21
16 18 18 15 14 17 20 20 21 21 21 21 23 24 24 24 23 22 20 18 17 16 18 18 19 19 19 20 21 22 21 21 21 22 22 23 25 26 27 25 23 24 25 26 26 26 26 27 28 28 28 29 30 30 29 29 29 29 28 27 25 25 25
14 16 18 17 15 16 19 20 20 18 16 16 18 20 22 23 23 23 22 21 21 21 21 21 22 22 23 23 24 25 24 23 23 24 24 25 26 27 27 27 27 28 30 29 29 28 28 28 28 29 30 31 32 32 31 31 31 30 30 30 29 29 29
14 15 16 18 17 16 17 18 18 18 16 15 15 17 19 20 21 22 22 22 22 23 24 25 25 25 25 26 26 25 24 24 25 26 27 28 29 29 30 31 32 34 34 33 32 31 31 30 30 31 32 33 35 35 34 32 32 32 32 32 32 32 32
15 16 16 17 16 17 18 16 17 18 17 17 17 17 18 19 20 20 21 22 23 25 26 28 28 28 29 28 27 27 27 28 29 30 30 31 32 32 33 34 34 36 36 35 34 33 32 32 33 33 33 33 34 35 35 34 33 33 33 33 33 34 34
15 15 15 14 12 15 16 15 16 17 18 19 19 20 21 22 23 23 23 25 26 27 29 30 31 32 32 31 31 31 31 32 33 33 33 34 34 35 36 36 36 37 36 36 35 34 34 34 34 34 33 32 32 33 34 34 33 32 32 32 33 34 36
18 18 18 17 17 20 22 20 19 20 21 22 23 24 25 26 26 26 26 27 28 30 31 32 33 34 34 34 34 34 34 35 35 35 35 36 36 36 37 39 39 39 38 37 36 37 37 36 33 32 33 33 33 34 34 32 31 31 31 32 34 35 37
26 27 27 27 28 29 28 25 23 24 25 26 27 28 28 29 29 29 29 30 31 32 34 35 36 36 37 37 37 37 37 37 37 38 39 38 38 38 39 40 40 40 40 39 39 40 40 38 35 33 33 35 36 37 36 34 33 33 33 34 35 37 38
29 31 33 33 32 31 30 30 29 29 29 30 30 31 32 33 33 34 33 33 33 35 37 38 38 39 39 39 39 39 40 40 41 42 42 41 40 41 41 41 41 41 41 40 41 41 41 40 38 36 34 35 37 39 39 39 39 38 37 37 37 38 39
33 33 35 36 36 36 36 36 36 35 34 35 35 36 37 37 37 37 38 37 37 38 39 40 40 40 41 41 41 41 42 42 43 43 43 42 41 41 41 41 42 42 42 42 42 43 43 43 42 40 36 35 39 43 44 45 43 41 40 39 39 39 40
39 39 39 40 40 40 41 41 41 40 39 39 39 39 40 40 40 40 40 41 40 39 40 40 41 42 42 43 43 43 43 44 44 44 44 42 41 41 41 41 42 42 42 43 44 45 45 45 44 43 40 39 42 45 48 49 46 44 43 42 41 42 42
41 40 41 42 43 43 44 45 45 44 44 43 43 43 43 42 42 43 43 42 41 40 41 42 43 44 44 45 45 45 45 45 45 45 44 43 42 43 43 44 44 44 44 46 47 48 48 48 47 46 45 44 44 44 46 47 46 45 45 44 44 43 43
42 42 42 43 45 45 46 48 48 49 49 49 49 48 46 44 43 43 42 42 43 43 44 46 46 46 47 47 47 47 47 47 47 47 46 45 45 45 46 47 48 49 49 49 49 49 50 50 50 48 47 46 46 46 46 48 48 48 47 45 44 44 44
44 44 45 45 46 48 49 51 52 53 53 53 52 51 50 47 44 43 43 44 46 48 48 49 50 50 50 50 50 51 51 51 51 51 50 48 47 48 48 48 49 50 50 50 50 51 51 51 50 50 49 49 49 49 49 50 50 49 47 45 45 45 46
47 47 47 48 48 50 52 53 53 53 53 52 52 52 51 50 50 49 49 49 51 52 52 53 53 53 53 54 54 55 55 55 55 54 53 51 50 50 50 50 50 50 50 50 51 52 53 53 53 53 52 51 50 51 51 50 49 48 47 45 45 45 46
46 47 48 49 50 50 51 51 51 51 51 52 53 53 54 54 56 56 56 56 55 56 56 56 56 57 57 57 58 58 58 59 58 57 55 54 52 51 52 51 51 50 50 51 52 53 54 54 54 54 54 53 53 53 52 50 49 49 47 45 44 45 46
47 48 49 50 51 51 51 52 53 54 54 55 56 58 59 60 61 61 61 61 60 60 60 60 60 60 61 61 61 60 60 60 60 59 57 55 53 52 50 48 48 48 49 50 51 51 52 53 54 55 56 56 56 55 54 53 51 51 50 48 47 48 50
52 53 54 55 56 57 58 59 60 60 60 60 61 62 63 64 64 64 64 64 64 64 63 62 62 63 62 61 61 61 60 59 59 58 57 54 52 51 48 45 45 47 48 49 50 51 53 54 55 56 56 56 57 57 57 56 55 54 53 52 52 52 53

ECMWFFLT1_500_spd_048.txt.gz
Wind_Speed
13 13 11 10 10 10 10 10 10 11 11 11 10 9 8 7 8 8 8 9 10 10 10 11 12 12 12 11 10 9 9 8 7 7 8 8 9 9 9 9 9 9 10 10 10 10 10 11 11 11 11 10 9 9 9 9 10 11 11 11 11 10 10
12 11 9 9 10 11 11 10 10 11 11 11 10 9 8 8 9 9 9 9 11 11 11 12 13 12 12 11 10 9 9 8 8 8 9 8 9 9 9 10 10 10 10 11 11 11 12 12 12 11 11 10 9 9 9 10 11 12 11 11 11 11 11
12 9 7 8 8 9 9 9 10 11 12 12 12 10 9 10 10 11 10 11 12 13 13 13 13 13 12 11 10 10 9 8 8 8 9 9 9 9 9 10 10 11 12 12 12 13 13 13 12 11 10 10 9 9 10 11 11 11 11 11 12 13 13
14 11 7 8 8 8 9 9 10 11 12 13 13 12 11 11 12 13 13 13 13 14 13 13 12 12 12 11 11 10 9 8 7 7 8 9 9 9 10 10 11 12 12 13 14 14 14 13 12 10 10 10 10 11 12 13 12 12 12 12 13 14 14
16 12 9 10 11 12 12 12 11 12 13 14 14 13 12 12 14 15 16 15 14 15 14 12 11 11 11 11 10 10 8 8 7 7 7 8 9 10 10 11 11 12 13 13 13 13 13 13 12 11 11 11 11 13 13 13 13 12 13 13 14 14 14
15 12 11 11 12 13 14 13 13 13 13 14 15 15 13 14 14 15 16 15 15 15 15 13 12 11 10 10 9 8 8 7 7 7 7 8 9 10 11 11 11 12 12 12 12 13 13 12 12 11 11 11 13 14 14 13 13 13 13 14 14 14 14
13 13 12 12 13 14 14 14 13 14 14 14 15 15 15 14 14 14 14 14 15 15 14 13 12 11 10 9 8 8 7 7 8 8 8 8 9 10 10 11 12 12 12 12 13 13 13 12 12 11 11 12 13 14 13 12 12 12 13 13 13 13 13
14 14 14 15 16 17 18 16 14 15 15 14 15 15 15 14 14 13 13 13 14 14 13 12 11 10 10 9 8 7 7 7 7 8 8 8 9 9 10 10 11 11 11 11 11 12 12 11 11 10 11 13 13 13 12 12 11 12 13 13 13 13 13
15 15 16 17 18 19 20 17 15 15 16 15 14 13 13 14 13 13 12 13 13 13 13 12 11 10 9 9 8 8 8 8 8 8 8 9 9 9 9 10 10 10 10 10 10 10 9 9 8 9 11 12 12 12 12 12 12 12 13 13 13 13 13
15 15 17 18 19 20 20 18 17 17 17 17 16 13 12 13 13 13 13 12 13 12 12 12 11 10 10 9 9 9 9 9 9 10 10 10 10 10 10 11 11 11 10 10 9 9 8 7 7 8 10 11 11 11 12 12 12 13 13 13 13 13 13
15 15 16 18 19 21 21 19 18 18 18 20 20 17 16 16 15 14 14 13 13 13 13 12 11 11 10 10 10 10 10 11 11 12 11 11 11 11 11 11 11 10 9 8 8 8 7 7 7 7 9 10 11 11 12 12 13 13 13 14 14 14 14
15 16 16 16 18 22 22 20 19 18 19 20 21 20 19 18 17 16 15 14 13 13 13 12 12 12 12 12 12 12 12 13 13 13 12 11 10 10 9 9 10 9 8 8 7 8 8 8 7 7 7 9 9 10 11 12 13 13 14 14 15 14 14
18 19 18 17 19 22 21 19 17 16 17 18 20 20 18 18 17 15 14 14 13 13 13 13 13 12 12 13 13 13 13 14 14 13 12 10 9 8 8 8 9 8 7 7 7 7 7 7 6 6 6 7 7 8 9 11 12 12 13 13 13 12 12
22 22 21 20 21 23 22 19 17 16 16 18 18 17 16 15 15 14 14 13 12 12 12 12 12 12 12 12 12 12 13 13 13 12 11 10 9 8 8 8 7 7 6 6 7 8 7 7 7 7 7 7 7 8 9 9 10 10 11 11 11 11 12
25 25 24 22 23 24 24 21 18 17 18 18 17 15 13 13 13 13 13 12 12 12 11 11 11 12 12 12 12 12 12 12 12 11 10 9 9 9 9 9 9 8 8 9 10 10 9 9 9 9 9 9 9 9 9 10 9 10 11 12 12 13 13
24 24 23 23 25 26 24 22 21 19 18 17 15 13 12 12 13 13 12 12 12 11 11 12 13 13 13 13 12 12 12 12 10 10 10 10 11 11 11 11 11 11 11 12 13 13 13 12 11 11 12 12 12 12 12 12 12 12 12 13 14 15 16
23 23 22 23 26 27 25 23 22 20 17 14 13 12 12 12 12 13 13 12 12 12 13 14 14 14 13 13 12 11 10 10 10 11 12 12 12 12 12 12 12 12 12 13 13 14 15 15 15 15 16 16 16 15 15 15 15 15 15 15 15 16 17
21 23 23 24 26 26 25 23 22 20 17 15 14 13 13 13 13 14 14 14 14 15 15 16 15 13 13 13 12 10 9 9 11 13 14 14 13 13 13 14 15 15 15 16 17 17 17 18 19 20 20 20 18 18 19 19 19 18 18 18 18 19 19
20 22 23 23 22 21 21 22 22 21 18 17 17 16 16 16 15 15 16 16 17 17 17 17 16 14 14 14 13 11 11 12 13 15 15 15 16 16 17 18 18 18 18 19 20 20 19 19 20 21 22 22 21 20 20 20 20 21 21 22 23 23 23
21 22 23 22 20 17 17 19 20 20 18 17 18 18 18 18 17 17 17 18 19 20 20 18 17 17 16 15 14 14 14 15 15 16 16 17 18 19 19 19 20 20 20 20 21 21 21 22 23 24 24 24 24 23 21 20 21 23 25 26 27 27 27
21 19 19 19 19 17 15 17 18 18 18 18 19 19 20 19 18 17 17 19 21 21 20 19 18 18 17 16 17 17 17 18 18 18 18 18 19 19 19 20 21 22 22 22 23 24 25 27 27 27 26 26 26 26 24 23 23 25 26 28 29 30 30
21 18 15 15 18 18 17 16 17 19 20 21 20 20 20 21 21 20 19 20 21 21 21 20 20 20 20 19 19 20 20 20 20 20 20 20 20 20 20 22 23 24 24 25 26 27 28 29 30 29 29 28 28 28 27 27 27 28 28 29 30 31 32
20 18 15 15 17 19 20 19 20 21 22 22 21 20 19 20 21 22 22 22 22 23 23 22 22 22 22 22 22 21 21 22 22 23 22 22 23 23 25 26 27 27 27 27 29 29 30 30 31 32 31 30 30 29 29 29 30 31 30 30 31 32 34
17 15 13 14 16 18 20 22 22 22 22 22 22 21 20 20 20 21 22 23 23 24 23 23 23 23 24 24 24 24 24 24 25 25 25 25 26 27 29 30 30 30 29 30 31 31 32 32 33 33 33 33 32 31 30 30 31 32 32 32 32 33 34
15 13 12 14 16 18 20 21 22 22 21 21 22 24 24 23 22 21 21 22 23 24 24 24 24 25 25 26 26 26 27 27 28 28 28 29 30 30 31 31 32 32 32 32 33 33 34 35 35 36 36 36 35 33 32 32 32 32 32 32 33 34 35
15 15 15 16 17 18 19 19 20 22 22 22 22 24 25 25 24 23 23 24 25 26 27 27 28 28 29 29 29 30 30 30 31 31 32 32 33 33 33 33 33 34 35 36 36 35 36 37 38 39 39 38 37 36 34 33 33 32 32 32 33 35 37
19 20 19 19 19 18 19 19 20 22 25 26 26 26 27 27 26 26 26 27 28 29 30 31 32 33 33 33 33 33 34 34 35 35 35 35 36 36 36 36 36 36 38 39 39 38 38 38 39 41 41 39 38 38 37 36 35 34 33 34 35 36 38
23 23 23 23 23 22 22 23 23 23 25 27 27 27 28 27 27 27 28 30 32 33 34 35 36 37 37 37 37 37 38 38 38 38 38 38 38 38 38 38 38 38 39 40 40 40 39 39 40 40 39 38 39 40 40 40 38 37 37 37 37 37 38
24 25 26 25 25 26 26 27 27 27 27 26 26 27 29 31 31 31 32 34 36 37 39 39 39 40 41 41 41 42 42 42 42 42 42 42 41 41 40 40 40 40 41 41 40 40 39 39 40 41 41 41 43 44 45 44 42 41 41 39 38 39 41
26 28 29 29 28 29 30 30 31 33 33 33 33 34 36 38 38 37 37 38 39 41 42 43 43 44 44 45 45 46 46 46 46 46 45 44 44 43 43 43 43 43 42 42 41 41 40 40 41 43 45 46 46 47 47 46 45 45 43 41 41 42 44
31 32 32 32 32 32 32 33 34 35 37 39 41 42 42 43 43 43 43 43 42 43 44 46 47 47 48 49 49 50 50 50 49 48 47 46 45 44 44 44 45 45 45 44 43 43 42 42 42 44 46 46 46 46 46 46 46 46 44 44 44 44 44
37 37 37 37 36 36 36 36 37 38 39 41 43 45 45 46 47 48 47 47 47 47 48 49 50 50 51 52 52 52 52 51 50 49 48 47 46 46 47 47 48 48 48 48 47 46 45 45 44 44 46 46 47 48 47 46 47 47 46 46 47 46 46
40 40 41 41 41 41 41 41 41 41 42 44 45 46 47 48 50 51 51 50 51 52 52 53 53 53 53 52 51 50 50 49 49 49 49 50 50 50 50 51 51 51 51 51 50 48 47 46 46 46 47 48 48 48 48 48 50 50 49 50 50 50 50
40 41 42 43 43 44 44 44 44 45 45 46 46 47 49 49 50 51 52 53 53 53 54 54 54 54 52 51 49 49 49 49 50 50 51 52 53 53 54 55 55 55 54 52 51 49 48 48 48 48 49 50 50 51 51 52 53 53 52 52 53 53 54
40 41 42 43 44 44 45 46 46 46 47 47 48 49 50 50 50 51 53 54 53 52 52 52 52 52 52 52 53 53 54 55 55 55 55 56 56 57 58 58 57 56 55 53 52 50 50 50 49 49 51 52 53 54 54 54 54 53 53 55 56 56 56
42 43 43 43 44 45 46 46 47 47 47 48 49 50 51 52 53 53 55 55 54 53 53 53 54 54 55 56 57 58 59 60 60 60 59 59 59 58 58 57 56 55 55 54 53 53 52 51 50 50 51 52 52 53 53 53 54 54 55 55 56 55 56
43 43 44 44 44 45 46 46 47 48 49 50 51 52 53 55 56 57 58 59 59 60 60 60 61 61 61 61 61 61 62 62 62 62 60 60 59 59 57 56 55 55 55 54 53 52 51 49 49 48 49 49 50 50 51 51 51 52 53 54 54 54 55